| time (UTC) | temp F | wind direction | speed knots | gust knots | rain 1hr in | rain 24hr in | rain mn in | humidity % | barometer mb |
| 20260903070039 | 81 | 360 | 7.0 | 16.5 | 0.00 | 0.00 | 0.00 | 79 | 1014.5 |
| 20260903065937 | 81 | 360 | 7.0 | 16.5 | 0.00 | 0.00 | 0.00 | 79 | 1014.5 |
| 20260903065837 | 81 | 360 | 5.2 | 13.9 | 0.00 | 0.00 | 0.00 | 79 | 1014.5 |
| 20260903065735 | 81 | 360 | 5.2 | 13.9 | 0.00 | 0.00 | 0.00 | 79 | 1014.5 |
| 20260903065634 | 81 | 360 | 4.3 | 13.9 | 0.00 | 0.00 | 0.00 | 79 | 1014.5 |
| 20260903065532 | 81 | 360 | 6.1 | 13.9 | 0.00 | 0.00 | 0.00 | 79 | 1014.5 |
| 20260903065453 | 81 | 360 | 6.1 | 13.9 | 0.00 | 0.00 | 0.00 | 79 | 1014.5 |
| 20260903065330 | 81 | 360 | 6.1 | 13.9 | 0.00 | 0.00 | 0.00 | 79 | 1014.5 |
| 20260903065231 | 81 | 360 | 6.1 | 13.9 | 0.00 | 0.00 | 0.00 | 79 | 1014.5 |
| 20260903065116 | 81 | 360 | 6.1 | 13.0 | 0.00 | 0.00 | 0.00 | 79 | 1014.5 |
| 20260903065017 | 81 | 360 | 7.0 | 13.0 | 0.00 | 0.00 | 0.00 | 78 | 1014.6 |
| 20260903064918 | 81 | 360 | 7.0 | 13.0 | 0.00 | 0.00 | 0.00 | 78 | 1014.5 |
| 20260903064819 | 81 | 360 | 7.0 | 13.0 | 0.00 | 0.00 | 0.00 | 78 | 1014.6 |
| 20260903064719 | 81 | 360 | 7.0 | 13.0 | 0.00 | 0.00 | 0.00 | 78 | 1014.5 |
| 20260903064640 | 81 | 360 | 8.7 | 13.9 | 0.00 | 0.00 | 0.00 | 78 | 1014.5 |
| 20260903064538 | 82 | 360 | 8.7 | 17.4 | 0.00 | 0.00 | 0.00 | 78 | 1014.5 |
| 20260903064423 | 82 | 360 | 8.7 | 17.4 | 0.00 | 0.00 | 0.00 | 78 | 1014.5 |
| 20260903064323 | 82 | 360 | 8.7 | 17.4 | 0.00 | 0.00 | 0.00 | 78 | 1014.6 |
| 20260903064224 | 82 | 360 | 7.0 | 17.4 | 0.00 | 0.00 | 0.00 | 77 | 1014.6 |
| 20260903064124 | 82 | 360 | 6.1 | 17.4 | 0.00 | 0.00 | 0.00 | 77 | 1014.6 |
| 20260903064026 | 82 | 360 | 7.0 | 17.4 | 0.00 | 0.00 | 0.00 | 77 | 1014.6 |
| 20260903063925 | 82 | 360 | 8.7 | 17.4 | 0.00 | 0.00 | 0.00 | 77 | 1014.6 |
| 20260903063827 | 82 | 360 | 11.3 | 17.4 | 0.00 | 0.00 | 0.00 | 77 | 1014.6 |
| 20260903063747 | 82 | 360 | 12.2 | 17.4 | 0.00 | 0.00 | 0.00 | 77 | 1014.6 |
| 20260903063631 | 82 | 360 | 10.4 | 17.4 | 0.00 | 0.00 | 0.00 | 77 | 1014.6 |
| 20260903063531 | 82 | 360 | 8.7 | 17.4 | 0.00 | 0.00 | 0.00 | 77 | 1014.6 |
| 20260903063432 | 82 | 360 | 7.0 | 15.6 | 0.00 | 0.00 | 0.00 | 77 | 1014.6 |
| 20260903063333 | 82 | 360 | 7.0 | 15.6 | 0.00 | 0.00 | 0.00 | 77 | 1014.6 |
| 20260903063234 | 82 | 360 | 7.8 | 15.6 | 0.00 | 0.00 | 0.00 | 77 | 1014.6 |
| 20260903063135 | 82 | 360 | 7.8 | 15.6 | 0.00 | 0.00 | 0.00 | 77 | 1014.6 |
| 20260903063020 | 82 | 360 | 8.7 | 15.6 | 0.00 | 0.00 | 0.00 | 76 | 1014.6 |
| 20260903062919 | 82 | 360 | 8.7 | 15.6 | 0.00 | 0.00 | 0.00 | 76 | 1014.6 |
| 20260903062821 | 82 | 360 | 7.8 | 15.6 | 0.00 | 0.00 | 0.00 | 76 | 1014.6 |
| 20260903062721 | 82 | 360 | 8.7 | 15.6 | 0.00 | 0.00 | 0.00 | 76 | 1014.6 |
| 20260903062621 | 82 | 360 | 9.6 | 15.6 | 0.00 | 0.00 | 0.00 | 76 | 1014.6 |
| 20260903062522 | 82 | 360 | 9.6 | 15.6 | 0.00 | 0.00 | 0.00 | 76 | 1014.6 |
| 20260903062421 | 82 | 162 | 9.6 | 15.6 | 0.00 | 0.00 | 0.00 | 76 | 1014.6 |
| 20260903062326 | 82 | 360 | 7.8 | 15.6 | 0.00 | 0.00 | 0.00 | 76 | 1014.6 |
| 20260903062226 | 82 | 360 | 7.8 | 15.6 | 0.00 | 0.00 | 0.00 | 75 | 1014.6 |
| 20260903062128 | 82 | 360 | 7.8 | 15.6 | 0.00 | 0.00 | 0.00 | 75 | 1014.5 |
| 20260903062028 | 82 | 360 | 7.0 | 15.6 | 0.00 | 0.00 | 0.00 | 75 | 1014.5 |
| 20260903061949 | 82 | 360 | 6.1 | 15.6 | 0.00 | 0.00 | 0.00 | 75 | 1014.5 |
| 20260903061828 | 82 | 360 | 6.1 | 15.6 | 0.00 | 0.00 | 0.00 | 75 | 1014.6 |
| 20260903061729 | 82 | 360 | 7.0 | 15.6 | 0.00 | 0.00 | 0.00 | 75 | 1014.5 |
| 20260903061633 | 82 | 360 | 7.8 | 15.6 | 0.00 | 0.00 | 0.00 | 75 | 1014.4 |
| 20260903061553 | 82 | 360 | 8.7 | 15.6 | 0.00 | 0.00 | 0.00 | 75 | 1014.5 |
| 20260903061433 | 82 | 360 | 7.8 | 15.6 | 0.00 | 0.00 | 0.00 | 75 | 1014.5 |
| 20260903061334 | 82 | 360 | 7.8 | 15.6 | 0.00 | 0.00 | 0.00 | 75 | 1014.5 |
| 20260903061234 | 82 | 360 | 7.8 | 15.6 | 0.00 | 0.00 | 0.00 | 74 | 1014.5 |
| 20260903061134 | 82 | 360 | 8.7 | 15.6 | 0.00 | 0.00 | 0.00 | 74 | 1014.6 |
| 20260903061020 | 82 | 360 | 8.7 | 20.0 | 0.00 | 0.00 | 0.00 | 74 | 1014.5 |
| 20260903060921 | 82 | 360 | 9.6 | 20.0 | 0.00 | 0.00 | 0.00 | 74 | 1014.6 |
| 20260903060820 | 83 | 360 | 9.6 | 20.0 | 0.00 | 0.00 | 0.00 | 74 | 1014.6 |
| 20260903060741 | 83 | 360 | 7.8 | 20.0 | 0.00 | 0.00 | 0.00 | 74 | 1014.6 |
| 20260903060618 | 83 | 360 | 7.8 | 20.0 | 0.00 | 0.00 | 0.00 | 73 | 1014.7 |
| 20260903060519 | 83 | 360 | 7.0 | 20.0 | 0.00 | 0.00 | 0.00 | 73 | 1014.6 |
| 20260903060419 | 83 | 360 | 7.8 | 20.0 | 0.00 | 0.00 | 0.00 | 73 | 1014.5 |
| 20260903060320 | 83 | 360 | 8.7 | 20.0 | 0.00 | 0.00 | 0.00 | 73 | 1014.6 |
| 20260903060241 | 83 | 360 | 9.6 | 14.8 | 0.00 | 0.00 | 0.00 | 73 | 1014.6 |
| 20260903060142 | 83 | 360 | 9.6 | 14.8 | 0.00 | 0.00 | 0.00 | 73 | 1014.7 |
| 20260903060034 | 83 | 360 | 9.6 | 14.8 | 0.00 | 0.00 | 0.00 | 73 | 1014.7 |
| 20260903055934 | 83 | 360 | 9.6 | 14.8 | 0.00 | 0.00 | 0.00 | 73 | 1014.7 |
| 20260903055835 | 83 | 360 | 9.6 | 14.8 | 0.00 | 0.00 | 0.00 | 73 | 1014.7 |
| 20260903055735 | 83 | 360 | 9.6 | 19.1 | 0.00 | 0.00 | 0.00 | 73 | 1014.6 |
| 20260903055635 | 83 | 360 | 10.4 | 19.1 | 0.00 | 0.00 | 0.00 | 72 | 1014.6 |
| 20260903055535 | 83 | 360 | 9.6 | 19.1 | 0.00 | 0.00 | 0.00 | 72 | 1014.6 |
| 20260903055419 | 83 | 360 | 9.6 | 19.1 | 0.00 | 0.00 | 0.00 | 72 | 1014.7 |
| 20260903055319 | 83 | 360 | 9.6 | 19.1 | 0.00 | 0.00 | 0.00 | 73 | 1014.6 |
| 20260903055220 | 83 | 360 | 8.7 | 19.1 | 0.00 | 0.00 | 0.00 | 73 | 1014.6 |
| 20260903055119 | 83 | 360 | 8.7 | 19.1 | 0.00 | 0.00 | 0.00 | 73 | 1014.6 |
| 20260903055020 | 83 | 360 | 7.8 | 19.1 | 0.00 | 0.00 | 0.00 | 73 | 1014.6 |
| 20260903054941 | 83 | 192 | 7.0 | 19.1 | 0.00 | 0.00 | 0.00 | 73 | 1014.6 |
| 20260903054821 | 83 | 360 | 7.8 | 19.1 | 0.00 | 0.00 | 0.00 | 73 | 1014.5 |
| 20260903054725 | 83 | 360 | 7.0 | 17.4 | 0.00 | 0.00 | 0.00 | 73 | 1014.5 |
| 20260903054625 | 83 | 360 | 8.7 | 17.4 | 0.00 | 0.00 | 0.00 | 73 | 1014.5 |
| 20260903054525 | 83 | 360 | 9.6 | 17.4 | 0.00 | 0.00 | 0.00 | 73 | 1014.6 |
| 20260903054426 | 83 | 173 | 9.6 | 17.4 | 0.00 | 0.00 | 0.00 | 73 | 1014.5 |
| 20260903054327 | 83 | 360 | 8.7 | 18.2 | 0.00 | 0.00 | 0.00 | 73 | 1014.6 |
| 20260903054227 | 83 | 360 | 8.7 | 18.2 | 0.00 | 0.00 | 0.00 | 73 | 1014.6 |
| 20260903054128 | 83 | 360 | 8.7 | 18.2 | 0.00 | 0.00 | 0.00 | 73 | 1014.6 |
| 20260903054032 | 83 | 360 | 8.7 | 18.2 | 0.00 | 0.00 | 0.00 | 73 | 1014.6 |
| 20260903053933 | 83 | 360 | 9.6 | 20.0 | 0.00 | 0.00 | 0.00 | 73 | 1014.6 |
| 20260903053833 | 83 | 360 | 10.4 | 20.0 | 0.00 | 0.00 | 0.00 | 73 | 1014.6 |
| 20260903053736 | 83 | 360 | 11.3 | 20.0 | 0.00 | 0.00 | 0.00 | 73 | 1014.5 |
| 20260903053656 | 83 | 360 | 13.0 | 20.0 | 0.00 | 0.00 | 0.00 | 73 | 1014.4 |
| 20260903053517 | 83 | 360 | 11.3 | 20.0 | 0.00 | 0.00 | 0.00 | 73 | 1014.4 |
| 20260903053422 | 83 | 360 | 11.3 | 20.0 | 0.00 | 0.00 | 0.00 | 73 | 1014.4 |
| 20260903053322 | 83 | 360 | 10.4 | 20.0 | 0.00 | 0.00 | 0.00 | 72 | 1014.4 |
| 20260903053222 | 83 | 360 | 10.4 | 20.0 | 0.00 | 0.00 | 0.00 | 72 | 1014.5 |
| 20260903053123 | 83 | 360 | 11.3 | 21.7 | 0.00 | 0.00 | 0.00 | 72 | 1014.5 |
| 20260903053024 | 83 | 360 | 11.3 | 21.7 | 0.00 | 0.00 | 0.00 | 72 | 1014.5 |
| 20260903052924 | 83 | 360 | 12.2 | 21.7 | 0.00 | 0.00 | 0.00 | 72 | 1014.5 |
| 20260903052826 | 83 | 360 | 13.0 | 21.7 | 0.00 | 0.00 | 0.00 | 72 | 1014.5 |
| 20260903052728 | 83 | 360 | 13.0 | 21.7 | 0.00 | 0.00 | 0.00 | 72 | 1014.6 |
| 20260903052630 | 83 | 360 | 13.9 | 21.7 | 0.00 | 0.00 | 0.00 | 71 | 1014.6 |
| 20260903052531 | 83 | 360 | 13.0 | 21.7 | 0.00 | 0.00 | 0.00 | 71 | 1014.5 |
| 20260903052452 | 83 | 360 | 12.2 | 21.7 | 0.00 | 0.00 | 0.00 | 71 | 1014.5 |
| 20260903052331 | 83 | 360 | 11.3 | 21.7 | 0.00 | 0.00 | 0.00 | 71 | 1014.6 |
| 20260903052231 | 83 | 360 | 9.6 | 20.0 | 0.00 | 0.00 | 0.00 | 71 | 1014.5 |
| 20260903052116 | 83 | 360 | 11.3 | 20.0 | 0.00 | 0.00 | 0.00 | 71 | 1014.6 |
| 20260903052016 | 84 | 360 | 12.2 | 21.7 | 0.00 | 0.00 | 0.00 | 71 | 1014.5 |
| 20260903051917 | 84 | 360 | 13.0 | 21.7 | 0.00 | 0.00 | 0.00 | 71 | 1014.6 |
| 20260903051818 | 84 | 360 | 12.2 | 21.7 | 0.00 | 0.00 | 0.00 | 71 | 1014.6 |
| 20260903051739 | 84 | 360 | 12.2 | 21.7 | 0.00 | 0.00 | 0.00 | 71 | 1014.6 |
| 20260903051618 | 84 | 360 | 12.2 | 21.7 | 0.00 | 0.00 | 0.00 | 71 | 1014.5 |
| 20260903051519 | 84 | 360 | 13.9 | 21.7 | 0.00 | 0.00 | 0.00 | 70 | 1014.6 |
| 20260903051424 | 84 | 360 | 15.6 | 21.7 | 0.00 | 0.00 | 0.00 | 70 | 1014.5 |
| 20260903051325 | 84 | 360 | 15.6 | 21.7 | 0.00 | 0.00 | 0.00 | 70 | 1014.5 |
| 20260903051225 | 84 | 360 | 14.8 | 21.7 | 0.00 | 0.00 | 0.00 | 70 | 1014.5 |
| 20260903051126 | 84 | 360 | 13.0 | 21.7 | 0.00 | 0.00 | 0.00 | 70 | 1014.4 |
| 20260903051026 | 84 | 360 | 11.3 | 20.0 | 0.00 | 0.00 | 0.00 | 70 | 1014.5 |
| 20260903050927 | 84 | 360 | 11.3 | 18.2 | 0.00 | 0.00 | 0.00 | 70 | 1014.5 |
| 20260903050827 | 84 | 360 | 11.3 | 18.2 | 0.00 | 0.00 | 0.00 | 69 | 1014.4 |
| 20260903050752 | 84 | 360 | 10.4 | 18.2 | 0.00 | 0.00 | 0.00 | 69 | 1014.4 |
| 20260903050632 | 84 | 360 | 11.3 | 18.2 | 0.00 | 0.00 | 0.00 | 69 | 1014.5 |
| 20260903050532 | 84 | 360 | 10.4 | 18.2 | 0.00 | 0.00 | 0.00 | 69 | 1014.5 |
| 20260903050432 | 84 | 360 | 11.3 | 18.2 | 0.00 | 0.00 | 0.00 | 69 | 1014.5 |
| 20260903050335 | 84 | 360 | 10.4 | 18.2 | 0.00 | 0.00 | 0.00 | 69 | 1014.4 |
| 20260903050235 | 84 | 360 | 11.3 | 18.2 | 0.00 | 0.00 | 0.00 | 68 | 1014.5 |
| 20260903050136 | 84 | 360 | 11.3 | 18.2 | 0.00 | 0.00 | 0.00 | 68 | 1014.5 |
| 20260903045953 | 84 | 360 | 11.3 | 18.2 | 0.00 | 0.00 | 0.00 | 68 | 1014.4 |
| 20260903045855 | 84 | 360 | 11.3 | 18.2 | 0.00 | 0.00 | 0.00 | 68 | 1014.4 |
| 20260903045732 | 84 | 360 | 11.3 | 20.9 | 0.00 | 0.00 | 0.00 | 68 | 1014.5 |
| 20260903045632 | 84 | 360 | 11.3 | 20.9 | 0.00 | 0.00 | 0.00 | 68 | 1014.4 |
| 20260903045552 | 84 | 360 | 10.4 | 20.9 | 0.00 | 0.00 | 0.00 | 67 | 1014.5 |
| 20260903045432 | 85 | 360 | 11.3 | 20.9 | 0.00 | 0.00 | 0.00 | 67 | 1014.4 |
| 20260903045333 | 84 | 153 | 11.3 | 20.9 | 0.00 | 0.00 | 0.00 | 67 | 1014.3 |
| 20260903045233 | 85 | 360 | 12.2 | 20.9 | 0.00 | 0.00 | 0.00 | 67 | 1014.4 |
| 20260903045117 | 85 | 360 | 13.0 | 20.9 | 0.00 | 0.00 | 0.00 | 67 | 1014.5 |
| 20260903045018 | 85 | 360 | 13.0 | 20.9 | 0.00 | 0.00 | 0.00 | 67 | 1014.5 |
| 20260903044919 | 85 | 360 | 13.9 | 20.9 | 0.00 | 0.00 | 0.00 | 67 | 1014.4 |
| 20260903044819 | 85 | 360 | 13.0 | 19.1 | 0.00 | 0.00 | 0.00 | 67 | 1014.4 |
| 20260903044720 | 85 | 360 | 12.2 | 19.1 | 0.00 | 0.00 | 0.00 | 67 | 1014.5 |
| 20260903044619 | 85 | 360 | 12.2 | 19.1 | 0.00 | 0.00 | 0.00 | 67 | 1014.5 |
| 20260903044525 | 85 | 360 | 12.2 | 19.1 | 0.00 | 0.00 | 0.00 | 67 | 1014.3 |
| 20260903044426 | 85 | 360 | 12.2 | 19.1 | 0.00 | 0.00 | 0.00 | 67 | 1014.4 |
| 20260903044327 | 85 | 360 | 12.2 | 19.1 | 0.00 | 0.00 | 0.00 | 67 | 1014.3 |
| 20260903044228 | 85 | 360 | 11.3 | 19.1 | 0.00 | 0.00 | 0.00 | 67 | 1014.4 |
| 20260903044129 | 85 | 360 | 10.4 | 19.1 | 0.00 | 0.00 | 0.00 | 67 | 1014.3 |
| 20260903044050 | 85 | 360 | 10.4 | 19.1 | 0.00 | 0.00 | 0.00 | 67 | 1014.3 |
| 20260903043929 | 85 | 360 | 11.3 | 19.1 | 0.00 | 0.00 | 0.00 | 67 | 1014.3 |
| 20260903043834 | 85 | 360 | 10.4 | 15.6 | 0.00 | 0.00 | 0.00 | 67 | 1014.4 |
| 20260903043734 | 85 | 360 | 9.6 | 15.6 | 0.00 | 0.00 | 0.00 | 67 | 1014.3 |
| 20260903043635 | 85 | 360 | 10.4 | 15.6 | 0.00 | 0.00 | 0.00 | 68 | 1014.3 |
| 20260903043516 | 85 | 360 | 10.4 | 14.8 | 0.00 | 0.00 | 0.00 | 67 | 1014.3 |
| 20260903043416 | 85 | 360 | 9.6 | 14.8 | 0.00 | 0.00 | 0.00 | 67 | 1014.3 |
| 20260903043317 | 85 | 360 | 9.6 | 14.8 | 0.00 | 0.00 | 0.00 | 67 | 1014.3 |
| 20260903043218 | 85 | 360 | 8.7 | 14.8 | 0.00 | 0.00 | 0.00 | 67 | 1014.2 |
| 20260903043143 | 85 | 360 | 8.7 | 11.3 | 0.00 | 0.00 | 0.00 | 67 | 1014.3 |
| 20260903043022 | 85 | 360 | 8.7 | 11.3 | 0.00 | 0.00 | 0.00 | 67 | 1014.3 |
| 20260903042942 | 85 | 360 | 7.8 | 11.3 | 0.00 | 0.00 | 0.00 | 67 | 1014.2 |
| 20260903042823 | 85 | 360 | 8.7 | 11.3 | 0.00 | 0.00 | 0.00 | 67 | 1014.4 |
| 20260903042722 | 85 | 360 | 8.7 | 12.2 | 0.00 | 0.00 | 0.00 | 67 | 1014.3 |
| 20260903042623 | 85 | 360 | 8.7 | 13.0 | 0.00 | 0.00 | 0.00 | 67 | 1014.2 |
| 20260903042522 | 85 | 360 | 7.8 | 13.0 | 0.00 | 0.00 | 0.00 | 67 | 1014.3 |
| 20260903042427 | 85 | 360 | 7.8 | 13.0 | 0.00 | 0.00 | 0.00 | 67 | 1014.2 |
| 20260903042328 | 85 | 360 | 8.7 | 13.0 | 0.00 | 0.00 | 0.00 | 67 | 1014.2 |
| 20260903042228 | 85 | 360 | 8.7 | 13.0 | 0.00 | 0.00 | 0.00 | 67 | 1014.2 |
| 20260903042128 | 85 | 360 | 9.6 | 13.0 | 0.00 | 0.00 | 0.00 | 67 | 1014.2 |
| 20260903042029 | 85 | 360 | 8.7 | 16.5 | 0.00 | 0.00 | 0.00 | 67 | 1014.2 |
| 20260903041950 | 85 | 360 | 8.7 | 16.5 | 0.00 | 0.00 | 0.00 | 67 | 1014.2 |
| 20260903041830 | 85 | 360 | 8.7 | 16.5 | 0.00 | 0.00 | 0.00 | 67 | 1014.1 |
| 20260903041735 | 85 | 360 | 8.7 | 16.5 | 0.00 | 0.00 | 0.00 | 67 | 1014.2 |
| 20260903041656 | 85 | 360 | 8.7 | 16.5 | 0.00 | 0.00 | 0.00 | 67 | 1014.1 |
| 20260903041556 | 85 | 360 | 8.7 | 16.5 | 0.00 | 0.00 | 0.00 | 66 | 1014.2 |
| 20260903041455 | 85 | 360 | 9.6 | 16.5 | 0.00 | 0.00 | 0.00 | 66 | 1014.2 |
| 20260903041335 | 85 | 360 | 10.4 | 16.5 | 0.00 | 0.00 | 0.00 | 66 | 1014.2 |
| 20260903041255 | 85 | 360 | 9.6 | 16.5 | 0.00 | 0.00 | 0.00 | 66 | 1014.2 |
| 20260903041135 | 85 | 360 | 9.6 | 16.5 | 0.00 | 0.00 | 0.00 | 66 | 1014.3 |
| 20260903041017 | 85 | 360 | 7.8 | 16.5 | 0.00 | 0.00 | 0.00 | 66 | 1014.3 |
| 20260903040921 | 85 | 360 | 7.8 | 16.5 | 0.00 | 0.00 | 0.00 | 66 | 1014.2 |
| 20260903040822 | 86 | 360 | 8.7 | 16.5 | 0.00 | 0.00 | 0.00 | 66 | 1014.3 |
| 20260903040743 | 86 | 360 | 7.8 | 17.4 | 0.00 | 0.00 | 0.00 | 65 | 1014.2 |
| 20260903040644 | 86 | 360 | 7.8 | 17.4 | 0.00 | 0.00 | 0.00 | 65 | 1014.2 |
| 20260903040524 | 86 | 360 | 8.7 | 17.4 | 0.00 | 0.00 | 0.00 | 65 | 1014.2 |
| 20260903040423 | 86 | 360 | 7.8 | 17.4 | 0.00 | 0.00 | 0.00 | 65 | 1014.3 |
| 20260903040324 | 86 | 360 | 9.6 | 17.4 | 0.00 | 0.00 | 0.00 | 65 | 1014.2 |
| 20260903040225 | 86 | 360 | 9.6 | 17.4 | 0.00 | 0.00 | 0.00 | 65 | 1014.2 |
| 20260903040130 | 86 | 360 | 10.4 | 17.4 | 0.00 | 0.00 | 0.00 | 65 | 1014.2 |
| 20260903040030 | 86 | 360 | 9.6 | 17.4 | 0.00 | 0.00 | 0.00 | 65 | 1014.2 |
| 20260903035930 | 86 | 360 | 8.7 | 17.4 | 0.00 | 0.00 | 0.00 | 65 | 1014.3 |
| 20260903035831 | 86 | 145 | 7.8 | 13.9 | 0.00 | 0.00 | 0.00 | 64 | 1014.3 |
| 20260903035730 | 86 | 360 | 7.0 | 13.9 | 0.00 | 0.00 | 0.00 | 64 | 1014.2 |
| 20260903035631 | 86 | 360 | 7.0 | 15.6 | 0.00 | 0.00 | 0.00 | 64 | 1014.3 |
| 20260903035532 | 86 | 360 | 7.8 | 15.6 | 0.00 | 0.00 | 0.00 | 64 | 1014.3 |
| 20260903035436 | 86 | 360 | 8.7 | 15.6 | 0.00 | 0.00 | 0.00 | 64 | 1014.2 |
| 20260903035357 | 86 | 360 | 7.8 | 15.6 | 0.00 | 0.00 | 0.00 | 64 | 1014.2 |
| 20260903035256 | 86 | 360 | 7.8 | 15.6 | 0.00 | 0.00 | 0.00 | 64 | 1014.2 |
| 20260903035135 | 86 | 360 | 8.7 | 15.6 | 0.00 | 0.00 | 0.00 | 64 | 1014.2 |
| 20260903035035 | 86 | 360 | 7.8 | 15.6 | 0.00 | 0.00 | 0.00 | 63 | 1014.1 |
| 20260903034936 | 86 | 360 | 7.8 | 15.6 | 0.00 | 0.00 | 0.00 | 63 | 1014.1 |
| 20260903034856 | 86 | 360 | 8.7 | 15.6 | 0.00 | 0.00 | 0.00 | 63 | 1014.1 |
| 20260903034735 | 86 | 360 | 8.7 | 13.0 | 0.00 | 0.00 | 0.00 | 63 | 1014.1 |
| 20260903034654 | 87 | 360 | 8.7 | 13.0 | 0.00 | 0.00 | 0.00 | 63 | 1014.2 |
| 20260903034518 | 87 | 360 | 7.8 | 14.8 | 0.00 | 0.00 | 0.00 | 63 | 1014.2 |
| 20260903034418 | 87 | 360 | 7.0 | 14.8 | 0.00 | 0.00 | 0.00 | 63 | 1014.2 |
| 20260903034318 | 87 | 360 | 7.0 | 14.8 | 0.00 | 0.00 | 0.00 | 62 | 1014.2 |
| 20260903034219 | 87 | 360 | 7.0 | 14.8 | 0.00 | 0.00 | 0.00 | 62 | 1014.2 |
| 20260903034118 | 87 | 360 | 6.1 | 17.4 | 0.00 | 0.00 | 0.00 | 62 | 1014.1 |
| 20260903034039 | 87 | 360 | 7.0 | 17.4 | 0.00 | 0.00 | 0.00 | 62 | 1014.2 |
| 20260903033939 | 87 | 360 | 7.8 | 17.4 | 0.00 | 0.00 | 0.00 | 62 | 1014.1 |
| 20260903033818 | 87 | 360 | 8.7 | 17.4 | 0.00 | 0.00 | 0.00 | 62 | 1014.2 |
| 20260903033739 | 87 | 360 | 9.6 | 17.4 | 0.00 | 0.00 | 0.00 | 61 | 1014.2 |
| 20260903033622 | 87 | 360 | 8.7 | 17.4 | 0.00 | 0.00 | 0.00 | 61 | 1014.1 |
| 20260903033524 | 87 | 360 | 7.8 | 17.4 | 0.00 | 0.00 | 0.00 | 61 | 1014.2 |
| 20260903033425 | 87 | 360 | 7.8 | 17.4 | 0.00 | 0.00 | 0.00 | 61 | 1014.1 |
| 20260903033325 | 87 | 360 | 8.7 | 17.4 | 0.00 | 0.00 | 0.00 | 61 | 1014.1 |
| 20260903033226 | 87 | 360 | 9.6 | 17.4 | 0.00 | 0.00 | 0.00 | 61 | 1014.1 |
| 20260903033126 | 87 | 360 | 9.6 | 17.4 | 0.00 | 0.00 | 0.00 | 61 | 1014.2 |
| 20260903033026 | 87 | 360 | 11.3 | 16.5 | 0.00 | 0.00 | 0.00 | 60 | 1014.2 |
| 20260903032951 | 87 | 360 | 10.4 | 16.5 | 0.00 | 0.00 | 0.00 | 60 | 1014.2 |
| 20260903032832 | 87 | 360 | 10.4 | 16.5 | 0.00 | 0.00 | 0.00 | 60 | 1014.2 |
| 20260903032731 | 87 | 360 | 10.4 | 16.5 | 0.00 | 0.00 | 0.00 | 60 | 1014.3 |
| 20260903032631 | 87 | 360 | 9.6 | 15.6 | 0.00 | 0.00 | 0.00 | 60 | 1014.2 |
| 20260903032552 | 87 | 360 | 9.6 | 15.6 | 0.00 | 0.00 | 0.00 | 60 | 1014.2 |
| 20260903032431 | 87 | 360 | 8.7 | 13.0 | 0.00 | 0.00 | 0.00 | 60 | 1014.2 |
| 20260903032333 | 87 | 360 | 7.8 | 13.0 | 0.00 | 0.00 | 0.00 | 61 | 1014.2 |
| 20260903032218 | 87 | 360 | 7.0 | 12.2 | 0.00 | 0.00 | 0.00 | 61 | 1014.1 |
| 20260903032119 | 87 | 360 | 6.1 | 11.3 | 0.00 | 0.00 | 0.00 | 61 | 1014.2 |
| 20260903032019 | 87 | 360 | 5.2 | 11.3 | 0.00 | 0.00 | 0.00 | 61 | 1014.1 |
| 20260903031920 | 87 | 360 | 5.2 | 11.3 | 0.00 | 0.00 | 0.00 | 61 | 1014.0 |
| 20260903031841 | 87 | 360 | 5.2 | 10.4 | 0.00 | 0.00 | 0.00 | 61 | 1014.0 |
| 20260903031721 | 87 | 102 | 5.2 | 10.4 | 0.00 | 0.00 | 0.00 | 61 | 1014.0 |
| 20260903031622 | 87 | 360 | 5.2 | 10.4 | 0.00 | 0.00 | 0.00 | 61 | 1013.9 |
| 20260903031526 | 87 | 360 | 5.2 | 9.6 | 0.00 | 0.00 | 0.00 | 61 | 1014.0 |
| 20260903031445 | 87 | 360 | 4.3 | 9.6 | 0.00 | 0.00 | 0.00 | 61 | 1013.9 |
| 20260903031324 | 87 | 360 | 4.3 | 8.7 | 0.00 | 0.00 | 0.00 | 61 | 1013.9 |
| 20260903031224 | 87 | 360 | 4.3 | 7.8 | 0.00 | 0.00 | 0.00 | 61 | 1013.8 |
| 20260903031145 | 87 | 138 | 4.3 | 7.0 | 0.00 | 0.00 | 0.00 | 60 | 1013.7 |
| 20260903031025 | 87 | 360 | 4.3 | 7.0 | 0.00 | 0.00 | 0.00 | 61 | 1013.8 |
| 20260903030925 | 87 | 360 | 4.3 | 7.0 | 0.00 | 0.00 | 0.00 | 61 | 1013.7 |
| 20260903030826 | 87 | 360 | 4.3 | 7.0 | 0.00 | 0.00 | 0.00 | 61 | 1013.8 |
| 20260903030732 | 87 | 360 | 4.3 | 7.0 | 0.00 | 0.00 | 0.00 | 61 | 1013.7 |
| 20260903030632 | 87 | 360 | 4.3 | 7.0 | 0.00 | 0.00 | 0.00 | 61 | 1013.7 |
| 20260903030532 | 87 | 360 | 4.3 | 7.0 | 0.00 | 0.00 | 0.00 | 61 | 1013.7 |
| 20260903030433 | 87 | 360 | 3.5 | 5.2 | 0.00 | 0.00 | 0.00 | 61 | 1013.7 |
| 20260903030334 | 87 | 360 | 2.6 | 4.3 | 0.00 | 0.00 | 0.00 | 61 | 1013.7 |
| 20260903030255 | 87 | 360 | 2.6 | 4.3 | 0.00 | 0.00 | 0.00 | 60 | 1013.7 |
| 20260903030118 | 87 | 360 | 2.6 | 4.3 | 0.00 | 0.00 | 0.00 | 60 | 1013.5 |
| 20260903030017 | 87 | 360 | 2.6 | 4.3 | 0.00 | 0.00 | 0.00 | 60 | 1013.5 |
| 20260903025938 | 88 | 360 | 2.6 | 4.3 | 0.00 | 0.00 | 0.00 | 60 | 1013.5 |
| 20260903025819 | 88 | 360 | 2.6 | 4.3 | 0.00 | 0.00 | 0.00 | 60 | 1013.5 |
| 20260903025719 | 88 | 360 | 2.6 | 4.3 | 0.00 | 0.00 | 0.00 | 60 | 1013.4 |
| 20260903025619 | 88 | 360 | 2.6 | 4.3 | 0.00 | 0.00 | 0.00 | 60 | 1013.4 |
| 20260903025520 | 88 | 360 | 2.6 | 4.3 | 0.00 | 0.00 | 0.00 | 60 | 1013.3 |
| 20260903025421 | 88 | 360 | 2.6 | 4.3 | 0.00 | 0.00 | 0.00 | 60 | 1013.4 |
| 20260903025346 | 88 | 360 | 1.7 | 4.3 | 0.00 | 0.00 | 0.00 | 60 | 1013.4 |
| 20260903025226 | 88 | 360 | 2.6 | 4.3 | 0.00 | 0.00 | 0.00 | 60 | 1013.4 |
| 20260903025126 | 88 | 360 | 2.6 | 4.3 | 0.00 | 0.00 | 0.00 | 60 | 1013.4 |
| 20260903025025 | 88 | 360 | 2.6 | 5.2 | 0.00 | 0.00 | 0.00 | 60 | 1013.4 |
| 20260903024926 | 88 | 360 | 2.6 | 5.2 | 0.00 | 0.00 | 0.00 | 60 | 1013.4 |
| 20260903024827 | 88 | 360 | 2.6 | 5.2 | 0.00 | 0.00 | 0.00 | 60 | 1013.4 |
| 20260903024727 | 88 | 360 | 2.6 | 5.2 | 0.00 | 0.00 | 0.00 | 60 | 1013.4 |
| 20260903024627 | 88 | 360 | 2.6 | 5.2 | 0.00 | 0.00 | 0.00 | 60 | 1013.4 |
| 20260903024532 | 88 | 360 | 2.6 | 5.2 | 0.00 | 0.00 | 0.00 | 59 | 1013.3 |
| 20260903024431 | 88 | 360 | 3.5 | 5.2 | 0.00 | 0.00 | 0.00 | 59 | 1013.3 |
| 20260903024332 | 88 | 360 | 3.5 | 5.2 | 0.00 | 0.00 | 0.00 | 59 | 1013.4 |
| 20260903024234 | 88 | 360 | 3.5 | 5.2 | 0.00 | 0.00 | 0.00 | 59 | 1013.4 |
| 20260903024135 | 88 | 360 | 3.5 | 5.2 | 0.00 | 0.00 | 0.00 | 59 | 1013.3 |
| 20260903024036 | 88 | 360 | 3.5 | 5.2 | 0.00 | 0.00 | 0.00 | 59 | 1013.3 |
| 20260903023920 | 88 | 360 | 3.5 | 5.2 | 0.00 | 0.00 | 0.00 | 59 | 1013.3 |
| 20260903023843 | 88 | 360 | 3.5 | 5.2 | 0.00 | 0.00 | 0.00 | 59 | 1013.3 |
| 20260903023716 | 88 | 360 | 2.6 | 5.2 | 0.00 | 0.00 | 0.00 | 59 | 1013.2 |
| 20260903023617 | 88 | 360 | 2.6 | 5.2 | 0.00 | 0.00 | 0.00 | 59 | 1013.2 |
| 20260903023518 | 88 | 360 | 2.6 | 7.0 | 0.00 | 0.00 | 0.00 | 59 | 1013.2 |
| 20260903023418 | 88 | 360 | 2.6 | 7.0 | 0.00 | 0.00 | 0.00 | 59 | 1013.2 |
| 20260903023339 | 88 | 360 | 2.6 | 7.0 | 0.00 | 0.00 | 0.00 | 59 | 1013.2 |
| 20260903023222 | 88 | 360 | 2.6 | 7.0 | 0.00 | 0.00 | 0.00 | 59 | 1013.2 |
| 20260903023123 | 88 | 360 | 2.6 | 7.0 | 0.00 | 0.00 | 0.00 | 59 | 1013.2 |
| 20260903023044 | 88 | 360 | 2.6 | 7.0 | 0.00 | 0.00 | 0.00 | 59 | 1013.2 |
| 20260903022924 | 88 | 143 | 3.5 | 7.0 | 0.00 | 0.00 | 0.00 | 59 | 1013.1 |
| 20260903022826 | 88 | 144 | 3.5 | 7.0 | 0.00 | 0.00 | 0.00 | 59 | 1013.2 |
| 20260903022726 | 88 | 360 | 3.5 | 7.8 | 0.00 | 0.00 | 0.00 | 59 | 1013.2 |
| 20260903022627 | 88 | 360 | 3.5 | 7.8 | 0.00 | 0.00 | 0.00 | 59 | 1013.2 |
| 20260903022532 | 88 | 360 | 2.6 | 7.8 | 0.00 | 0.00 | 0.00 | 59 | 1013.2 |
| 20260903022432 | 88 | 360 | 1.7 | 7.8 | 0.00 | 0.00 | 0.00 | 59 | 1013.1 |
| 20260903022334 | 88 | 360 | 1.7 | 7.8 | 0.00 | 0.00 | 0.00 | 60 | 1013.0 |
| 20260903022234 | 88 | 360 | 1.7 | 7.8 | 0.00 | 0.00 | 0.00 | 60 | 1013.0 |
| 20260903022134 | 88 | 360 | 2.6 | 7.8 | 0.00 | 0.00 | 0.00 | 60 | 1012.9 |
| 20260903022035 | 88 | 360 | 3.5 | 7.8 | 0.00 | 0.00 | 0.00 | 60 | 1013.0 |
| 20260903021920 | 88 | 360 | 4.3 | 7.8 | 0.00 | 0.00 | 0.00 | 59 | 1012.9 |
| 20260903021820 | 88 | 360 | 4.3 | 7.8 | 0.00 | 0.00 | 0.00 | 59 | 1013.0 |
| 20260903021721 | 88 | 360 | 4.3 | 7.0 | 0.00 | 0.00 | 0.00 | 59 | 1012.9 |
| 20260903021642 | 88 | 360 | 4.3 | 7.0 | 0.00 | 0.00 | 0.00 | 58 | 1012.9 |
| 20260903021516 | 89 | 360 | 3.5 | 4.3 | 0.00 | 0.00 | 0.00 | 58 | 1012.9 |
| 20260903021416 | 89 | 360 | 2.6 | 4.3 | 0.00 | 0.00 | 0.00 | 58 | 1012.9 |
| 20260903021316 | 89 | 360 | 1.7 | 2.6 | 0.00 | 0.00 | 0.00 | 57 | 1012.7 |
| 20260903021242 | 89 | 360 | 1.7 | 2.6 | 0.00 | 0.00 | 0.00 | 57 | 1012.7 |
| 20260903021116 | 89 | 360 | 0.9 | 2.6 | 0.00 | 0.00 | 0.00 | 57 | 1012.7 |
| 20260903021016 | 89 | 360 | 1.7 | 2.6 | 0.00 | 0.00 | 0.00 | 57 | 1012.7 |
| 20260903020917 | 89 | 360 | 1.7 | 2.6 | 0.00 | 0.00 | 0.00 | 57 | 1012.6 |
| 20260903020816 | 89 | 360 | 1.7 | 2.6 | 0.00 | 0.00 | 0.00 | 57 | 1012.6 |
| 20260903020717 | 89 | 360 | 1.7 | 2.6 | 0.00 | 0.00 | 0.00 | 56 | 1012.6 |
| 20260903020638 | 89 | 360 | 1.7 | 2.6 | 0.00 | 0.00 | 0.00 | 56 | 1012.6 |
| 20260903020522 | 89 | 360 | 1.7 | 2.6 | 0.00 | 0.00 | 0.00 | 56 | 1012.6 |
| 20260903020423 | 89 | 113 | 1.7 | 2.6 | 0.00 | 0.00 | 0.00 | 56 | 1012.6 |
| 20260903020324 | 89 | 360 | 1.7 | 2.6 | 0.00 | 0.00 | 0.00 | 56 | 1012.6 |
| 20260903020225 | 89 | 360 | 1.7 | 2.6 | 0.00 | 0.00 | 0.00 | 56 | 1012.6 |
| 20260903020146 | 90 | 360 | 1.7 | 2.6 | 0.00 | 0.00 | 0.00 | 56 | 1012.6 |
| 20260903020024 | 90 | 360 | 1.7 | 2.6 | 0.00 | 0.00 | 0.00 | 56 | 1012.6 |
| 20260903015924 | 90 | 360 | 1.7 | 2.6 | 0.00 | 0.00 | 0.00 | 56 | 1012.6 |
| 20260903015825 | 90 | 360 | 1.7 | 2.6 | 0.00 | 0.00 | 0.00 | 56 | 1012.5 |
| 20260903015728 | 90 | 360 | 1.7 | 2.6 | 0.00 | 0.00 | 0.00 | 56 | 1012.6 |
| 20260903015630 | 90 | 360 | 0.9 | 1.7 | 0.00 | 0.00 | 0.00 | 56 | 1012.6 |
| 20260903015531 | 90 | 360 | 0.9 | 1.7 | 0.00 | 0.00 | 0.00 | 56 | 1012.5 |
| 20260903015432 | 90 | 360 | 0.0 | 1.7 | 0.00 | 0.00 | 0.00 | 56 | 1012.6 |
| 20260903015334 | 90 | 115 | 0.0 | 1.7 | 0.00 | 0.00 | 0.00 | 56 | 1012.5 |
| 20260903015235 | 90 | 360 | 0.9 | 1.7 | 0.00 | 0.00 | 0.00 | 55 | 1012.5 |
| 20260903015119 | 90 | 360 | 0.9 | 2.6 | 0.00 | 0.00 | 0.00 | 55 | 1012.6 |
| 20260903015020 | 90 | 360 | 0.9 | 2.6 | 0.00 | 0.00 | 0.00 | 55 | 1012.5 |
| 20260903014921 | 90 | 114 | 0.9 | 2.6 | 0.00 | 0.00 | 0.00 | 55 | 1012.5 |
| 20260903014841 | 90 | 114 | 0.9 | 2.6 | 0.00 | 0.00 | 0.00 | 55 | 1012.5 |
| 20260903014740 | 90 | 360 | 0.9 | 2.6 | 0.00 | 0.00 | 0.00 | 55 | 1012.5 |
| 20260903014620 | 90 | 114 | 1.7 | 2.6 | 0.00 | 0.00 | 0.00 | 55 | 1012.5 |
| 20260903014519 | 90 | 360 | 1.7 | 2.6 | 0.00 | 0.00 | 0.00 | 55 | 1012.4 |
| 20260903014439 | 90 | 114 | 1.7 | 2.6 | 0.00 | 0.00 | 0.00 | 54 | 1012.5 |
| 20260903014318 | 90 | 360 | 1.7 | 2.6 | 0.00 | 0.00 | 0.00 | 55 | 1012.4 |
| 20260903014223 | 90 | 360 | 0.9 | 2.6 | 0.00 | 0.00 | 0.00 | 55 | 1012.4 |
| 20260903014125 | 90 | 360 | 1.7 | 3.5 | 0.00 | 0.00 | 0.00 | 55 | 1012.5 |
| 20260903014026 | 90 | 360 | 1.7 | 3.5 | 0.00 | 0.00 | 0.00 | 55 | 1012.4 |
| 20260903013927 | 90 | 360 | 1.7 | 3.5 | 0.00 | 0.00 | 0.00 | 54 | 1012.4 |
| 20260903013826 | 90 | 360 | 1.7 | 3.5 | 0.00 | 0.00 | 0.00 | 54 | 1012.3 |
| 20260903013727 | 90 | 360 | 1.7 | 3.5 | 0.00 | 0.00 | 0.00 | 54 | 1012.3 |
| 20260903013648 | 90 | 360 | 1.7 | 3.5 | 0.00 | 0.00 | 0.00 | 54 | 1012.4 |
| 20260903013532 | 90 | 360 | 1.7 | 3.5 | 0.00 | 0.00 | 0.00 | 54 | 1012.3 |
| 20260903013431 | 90 | 360 | 1.7 | 3.5 | 0.00 | 0.00 | 0.00 | 54 | 1012.3 |
| 20260903013351 | 90 | 360 | 1.7 | 4.3 | 0.00 | 0.00 | 0.00 | 54 | 1012.4 |
| 20260903013251 | 90 | 360 | 1.7 | 4.3 | 0.00 | 0.00 | 0.00 | 54 | 1012.3 |
| 20260903013130 | 90 | 360 | 1.7 | 4.3 | 0.00 | 0.00 | 0.00 | 55 | 1012.3 |
| 20260903013031 | 91 | 360 | 1.7 | 4.3 | 0.00 | 0.00 | 0.00 | 55 | 1012.4 |
| 20260903012931 | 91 | 360 | 1.7 | 4.3 | 0.00 | 0.00 | 0.00 | 54 | 1012.3 |
| 20260903012853 | 91 | 360 | 2.6 | 4.3 | 0.00 | 0.00 | 0.00 | 55 | 1012.3 |
| 20260903012735 | 91 | 360 | 2.6 | 4.3 | 0.00 | 0.00 | 0.00 | 54 | 1012.3 |
| 20260903012636 | 91 | 360 | 2.6 | 4.3 | 0.00 | 0.00 | 0.00 | 55 | 1012.3 |
| 20260903012557 | 91 | 360 | 2.6 | 4.3 | 0.00 | 0.00 | 0.00 | 54 | 1012.3 |
| 20260903012435 | 91 | 360 | 1.7 | 3.5 | 0.00 | 0.00 | 0.00 | 55 | 1012.4 |
| 20260903012317 | 91 | 360 | 1.7 | 3.5 | 0.00 | 0.00 | 0.00 | 55 | 1012.3 |
| 20260903012238 | 91 | 360 | 2.6 | 3.5 | 0.00 | 0.00 | 0.00 | 54 | 1012.3 |
| 20260903012118 | 91 | 360 | 2.6 | 3.5 | 0.00 | 0.00 | 0.00 | 54 | 1012.3 |
| 20260903012018 | 91 | 360 | 2.6 | 3.5 | 0.00 | 0.00 | 0.00 | 54 | 1012.3 |
| 20260903011922 | 91 | 360 | 2.6 | 3.5 | 0.00 | 0.00 | 0.00 | 54 | 1012.4 |
| 20260903011823 | 91 | 360 | 1.7 | 3.5 | 0.00 | 0.00 | 0.00 | 54 | 1012.3 |
| 20260903011724 | 91 | 360 | 1.7 | 3.5 | 0.00 | 0.00 | 0.00 | 54 | 1012.3 |
| 20260903011624 | 91 | 360 | 1.7 | 3.5 | 0.00 | 0.00 | 0.00 | 54 | 1012.4 |
| 20260903011525 | 91 | 360 | 1.7 | 3.5 | 0.00 | 0.00 | 0.00 | 53 | 1012.3 |
| 20260903011425 | 91 | 360 | 2.6 | 4.3 | 0.00 | 0.00 | 0.00 | 53 | 1012.3 |
| 20260903011325 | 91 | 109 | 2.6 | 4.3 | 0.00 | 0.00 | 0.00 | 53 | 1012.3 |
| 20260903011230 | 92 | 360 | 2.6 | 5.2 | 0.00 | 0.00 | 0.00 | 53 | 1012.3 |
| 20260903011130 | 92 | 360 | 2.6 | 7.0 | 0.00 | 0.00 | 0.00 | 53 | 1012.4 |
| 20260903011050 | 92 | 360 | 2.6 | 7.0 | 0.00 | 0.00 | 0.00 | 53 | 1012.3 |
| 20260903010931 | 92 | 360 | 2.6 | 7.0 | 0.00 | 0.00 | 0.00 | 53 | 1012.4 |
| 20260903010850 | 92 | 360 | 2.6 | 7.0 | 0.00 | 0.00 | 0.00 | 53 | 1012.3 |
| 20260903010729 | 92 | 360 | 3.5 | 7.8 | 0.00 | 0.00 | 0.00 | 52 | 1012.4 |
| 20260903010630 | 92 | 360 | 3.5 | 7.8 | 0.00 | 0.00 | 0.00 | 52 | 1012.4 |
| 20260903010529 | 92 | 360 | 3.5 | 7.8 | 0.00 | 0.00 | 0.00 | 52 | 1012.3 |
| 20260903010434 | 92 | 360 | 4.3 | 7.8 | 0.00 | 0.00 | 0.00 | 51 | 1012.3 |
| 20260903010334 | 93 | 360 | 4.3 | 7.8 | 0.00 | 0.00 | 0.00 | 51 | 1012.3 |
| 20260903010234 | 93 | 360 | 4.3 | 7.8 | 0.00 | 0.00 | 0.00 | 51 | 1012.4 |
| 20260903010155 | 93 | 360 | 3.5 | 7.8 | 0.00 | 0.00 | 0.00 | 51 | 1012.3 |
| 20260903010035 | 93 | 360 | 2.6 | 7.8 | 0.00 | 0.00 | 0.00 | 51 | 1012.3 |
| 20260903005935 | 94 | 360 | 0.9 | 7.8 | 0.00 | 0.00 | 0.00 | 55 | 1012.3 |
| 20260903005835 | 94 | 360 | 0.0 | 0.9 | 0.00 | 0.00 | 0.00 | 54 | 1012.2 |
| 20260903005719 | 94 | 360 | 0.0 | 0.0 | 0.00 | 0.00 | 0.00 | 54 | 1012.3 |
| 20260903005621 | 94 | 360 | 0.0 | 0.0 | 0.00 | 0.00 | 0.00 | 53 | 1012.2 |
| 20260903005522 | 94 | 360 | 0.0 | 0.0 | 0.00 | 0.00 | 0.00 | 53 | 1012.2 |
| 20260903005423 | 95 | 360 | 0.0 | 0.0 | 0.00 | 0.00 | 0.00 | 53 | 1012.1 |
| 20260903005343 | 95 | 360 | 0.0 | 0.0 | 0.00 | 0.00 | 0.00 | 51 | 1012.2 |
| 20260903005306 | 95 | 360 | 0.0 | 0.0 | 0.00 | 0.00 | 0.00 | 51 | 1012.1 |
| 20260903005116 | 95 | 360 | 0.0 | 0.0 | 0.00 | 0.00 | 0.00 | 52 | 1012.1 |
| 20260903005020 | 95 | 360 | 0.0 | 0.0 | 0.00 | 0.00 | 0.00 | 50 | 1012.1 |
| 20260903004920 | 95 | 360 | 0.0 | 0.0 | 0.00 | 0.00 | 0.00 | 50 | 1012.1 |
| 20260903004821 | 95 | 360 | 0.0 | 0.0 | 0.00 | 0.00 | 0.00 | 50 | 1012.2 |
| 20260903004721 | 95 | 360 | 0.0 | 0.0 | 0.00 | 0.00 | 0.00 | 50 | 1012.2 |
| 20260903004622 | 95 | 360 | 0.0 | 0.0 | 0.00 | 0.00 | 0.00 | 50 | 1012.2 |
| 20260903004523 | 95 | 360 | 0.0 | 0.0 | 0.00 | 0.00 | 0.00 | 51 | 1012.3 |
| 20260903004423 | 95 | 360 | 0.0 | 0.0 | 0.00 | 0.00 | 0.00 | 50 | 1012.3 |
| 20260903004328 | 95 | 360 | 0.0 | 0.0 | 0.00 | 0.00 | 0.00 | 50 | 1012.3 |
| 20260903004249 | 95 | 360 | 0.0 | 0.0 | 0.00 | 0.00 | 0.00 | 50 | 1012.2 |
| 20260903004127 | 95 | 360 | 0.0 | 0.0 | 0.00 | 0.00 | 0.00 | 51 | 1012.3 |
| 20260903004028 | 95 | 360 | 0.0 | 0.0 | 0.00 | 0.00 | 0.00 | 51 | 1012.3 |
| 20260903003929 | 95 | 360 | 0.0 | 0.0 | 0.00 | 0.00 | 0.00 | 51 | 1012.2 |
| 20260903003830 | 95 | 360 | 0.0 | 0.0 | 0.00 | 0.00 | 0.00 | 50 | 1012.3 |
| 20260903003730 | 95 | 360 | 0.0 | 0.0 | 0.00 | 0.00 | 0.00 | 50 | 1012.3 |
| 20260903003630 | 95 | 360 | 0.0 | 0.0 | 0.00 | 0.00 | 0.00 | 49 | 1012.3 |
| 20260903003535 | 95 | 360 | 0.0 | 0.0 | 0.00 | 0.00 | 0.00 | 48 | 1012.2 |
| 20260903003417 | 96 | 360 | 0.0 | 0.0 | 0.00 | 0.00 | 0.00 | 48 | 1012.3 |
| 20260903003338 | 96 | 360 | 0.0 | 0.0 | 0.00 | 0.00 | 0.00 | 48 | 1012.3 |
| 20260903003237 | 96 | 360 | 0.0 | 0.0 | 0.00 | 0.00 | 0.00 | 48 | 1012.3 |
| 20260903003137 | 96 | 360 | 0.0 | 0.0 | 0.00 | 0.00 | 0.00 | 48 | 1012.3 |
| 20260903003034 | 96 | 360 | 0.0 | 0.0 | 0.00 | 0.00 | 0.00 | 48 | 1012.2 |
| 20260903002935 | 96 | 360 | 0.0 | 0.0 | 0.00 | 0.00 | 0.00 | 49 | 1012.3 |
| 20260903002820 | 96 | 360 | 0.0 | 0.0 | 0.00 | 0.00 | 0.00 | 48 | 1012.3 |
| 20260903002720 | 96 | 360 | 0.0 | 0.0 | 0.00 | 0.00 | 0.00 | 47 | 1012.3 |
| 20260903002621 | 96 | 360 | 0.0 | 0.9 | 0.00 | 0.00 | 0.00 | 47 | 1012.3 |
| 20260903002521 | 96 | 360 | 0.0 | 0.9 | 0.00 | 0.00 | 0.00 | 47 | 1012.2 |
| 20260903002421 | 96 | 360 | 0.0 | 0.9 | 0.00 | 0.00 | 0.00 | 48 | 1012.1 |
| 20260903002342 | 96 | 360 | 0.0 | 0.9 | 0.00 | 0.00 | 0.00 | 47 | 1012.2 |
| 20260903002216 | 96 | 360 | 0.0 | 0.9 | 0.00 | 0.00 | 0.00 | 46 | 1012.3 |
| 20260903002121 | 96 | 360 | 0.0 | 1.7 | 0.00 | 0.00 | 0.00 | 46 | 1012.2 |
| 20260903002022 | 96 | 360 | 0.0 | 1.7 | 0.00 | 0.00 | 0.00 | 46 | 1012.1 |
| 20260903001943 | 96 | 360 | 0.0 | 1.7 | 0.00 | 0.00 | 0.00 | 46 | 1012.2 |
| 20260903001904 | 96 | 360 | 0.0 | 1.7 | 0.00 | 0.00 | 0.00 | 46 | 1012.3 |
| 20260903001716 | 96 | 360 | 0.9 | 1.7 | 0.00 | 0.00 | 0.00 | 46 | 1012.2 |
| 20260903001616 | 96 | 360 | 0.9 | 1.7 | 0.00 | 0.00 | 0.00 | 46 | 1012.2 |
| 20260903001516 | 96 | 360 | 0.9 | 1.7 | 0.00 | 0.00 | 0.00 | 46 | 1012.2 |
| 20260903001421 | 96 | 360 | 0.9 | 2.6 | 0.00 | 0.00 | 0.00 | 46 | 1012.2 |
| 20260903001322 | 96 | 360 | 0.9 | 2.6 | 0.00 | 0.00 | 0.00 | 46 | 1012.2 |
| 20260903001223 | 97 | 360 | 0.9 | 2.6 | 0.00 | 0.00 | 0.00 | 46 | 1012.3 |
| 20260903001124 | 96 | 360 | 0.9 | 2.6 | 0.00 | 0.00 | 0.00 | 46 | 1012.2 |
| 20260903001024 | 97 | 360 | 0.9 | 3.5 | 0.00 | 0.00 | 0.00 | 45 | 1012.2 |
| 20260903000926 | 96 | 360 | 0.9 | 3.5 | 0.00 | 0.00 | 0.00 | 45 | 1012.2 |
| 20260903000825 | 97 | 360 | 0.9 | 3.5 | 0.00 | 0.00 | 0.00 | 44 | 1012.2 |
| 20260903000731 | 97 | 360 | 1.7 | 3.5 | 0.00 | 0.00 | 0.00 | 44 | 1012.3 |
| 20260903000632 | 97 | 360 | 1.7 | 3.5 | 0.00 | 0.00 | 0.00 | 44 | 1012.2 |
| 20260903000532 | 97 | 360 | 1.7 | 3.5 | 0.00 | 0.00 | 0.00 | 44 | 1012.2 |
| 20260903000433 | 97 | 360 | 1.7 | 3.5 | 0.00 | 0.00 | 0.00 | 44 | 1012.1 |
| 20260903000355 | 97 | 360 | 2.6 | 3.5 | 0.00 | 0.00 | 0.00 | 44 | 1012.2 |
| 20260903000251 | 97 | 360 | 2.6 | 3.5 | 0.00 | 0.00 | 0.00 | 45 | 1012.1 |
| 20260903000132 | 97 | 360 | 2.6 | 3.5 | 0.00 | 0.00 | 0.00 | 44 | 1012.2 |
| 20260903000017 | 97 | 360 | 2.6 | 3.5 | 0.00 | 0.00 | 0.00 | 44 | 1012.1 |
| 20260902235916 | 97 | 360 | 1.7 | 3.5 | 0.00 | 0.00 | 0.00 | 45 | 1012.2 |
| 20260902235818 | 97 | 360 | 0.9 | 3.5 | 0.00 | 0.00 | 0.00 | 45 | 1012.1 |
| 20260902235718 | 97 | 360 | 0.9 | 2.6 | 0.00 | 0.00 | 0.00 | 45 | 1012.2 |
| 20260902235639 | 97 | 360 | 0.9 | 2.6 | 0.00 | 0.00 | 0.00 | 45 | 1012.2 |
| 20260902235518 | 97 | 360 | 0.9 | 2.6 | 0.00 | 0.00 | 0.00 | 45 | 1012.3 |
| 20260902235419 | 97 | 360 | 1.7 | 2.6 | 0.00 | 0.00 | 0.00 | 45 | 1012.3 |
| 20260902235322 | 97 | 360 | 0.9 | 2.6 | 0.00 | 0.00 | 0.00 | 45 | 1012.3 |
| 20260902235222 | 97 | 360 | 1.7 | 3.5 | 0.00 | 0.00 | 0.00 | 45 | 1012.3 |
| 20260902235123 | 97 | 360 | 1.7 | 3.5 | 0.00 | 0.00 | 0.00 | 45 | 1012.3 |
| 20260902235024 | 97 | 360 | 1.7 | 3.5 | 0.00 | 0.00 | 0.00 | 45 | 1012.3 |
| 20260902234924 | 97 | 360 | 1.7 | 4.3 | 0.00 | 0.00 | 0.00 | 45 | 1012.3 |
| 20260902234825 | 97 | 360 | 1.7 | 4.3 | 0.00 | 0.00 | 0.00 | 45 | 1012.2 |
| 20260902234725 | 97 | 360 | 1.7 | 4.3 | 0.00 | 0.00 | 0.00 | 46 | 1012.3 |
| 20260902234629 | 97 | 360 | 1.7 | 4.3 | 0.00 | 0.00 | 0.00 | 45 | 1012.3 |
| 20260902234530 | 97 | 360 | 1.7 | 4.3 | 0.00 | 0.00 | 0.00 | 45 | 1012.1 |
| 20260902234451 | 97 | 360 | 1.7 | 7.0 | 0.00 | 0.00 | 0.00 | 45 | 1012.1 |
| 20260902234329 | 97 | 360 | 2.6 | 7.0 | 0.00 | 0.00 | 0.00 | 45 | 1012.2 |
| 20260902234227 | 97 | 360 | 2.6 | 7.0 | 0.00 | 0.00 | 0.00 | 45 | 1012.1 |
| 20260902234126 | 97 | 360 | 2.6 | 7.0 | 0.00 | 0.00 | 0.00 | 45 | 1012.2 |
| 20260902234026 | 97 | 360 | 3.5 | 7.0 | 0.00 | 0.00 | 0.00 | 44 | 1012.1 |
| 20260902233930 | 97 | 360 | 3.5 | 7.0 | 0.00 | 0.00 | 0.00 | 44 | 1012.3 |
| 20260902233851 | 97 | 360 | 4.3 | 7.0 | 0.00 | 0.00 | 0.00 | 45 | 1012.2 |
| 20260902233730 | 97 | 360 | 3.5 | 7.0 | 0.00 | 0.00 | 0.00 | 45 | 1012.2 |
| 20260902233630 | 97 | 360 | 3.5 | 7.0 | 0.00 | 0.00 | 0.00 | 45 | 1012.3 |
| 20260902233530 | 97 | 360 | 2.6 | 4.3 | 0.00 | 0.00 | 0.00 | 45 | 1012.3 |
| 20260902233432 | 97 | 360 | 2.6 | 4.3 | 0.00 | 0.00 | 0.00 | 45 | 1012.2 |
| 20260902233332 | 97 | 360 | 2.6 | 4.3 | 0.00 | 0.00 | 0.00 | 44 | 1012.2 |
| 20260902233217 | 97 | 360 | 2.6 | 4.3 | 0.00 | 0.00 | 0.00 | 45 | 1012.3 |
| 20260902233117 | 97 | 360 | 2.6 | 4.3 | 0.00 | 0.00 | 0.00 | 44 | 1012.3 |
| 20260902233017 | 97 | 360 | 2.6 | 5.2 | 0.00 | 0.00 | 0.00 | 44 | 1012.3 |
| 20260902232918 | 97 | 360 | 2.6 | 5.2 | 0.00 | 0.00 | 0.00 | 45 | 1012.2 |
| 20260902232820 | 97 | 360 | 3.5 | 5.2 | 0.00 | 0.00 | 0.00 | 45 | 1012.3 |
| 20260902232718 | 97 | 360 | 3.5 | 5.2 | 0.00 | 0.00 | 0.00 | 44 | 1012.3 |
| 20260902232618 | 97 | 360 | 3.5 | 5.2 | 0.00 | 0.00 | 0.00 | 44 | 1012.4 |
| 20260902232524 | 97 | 360 | 3.5 | 5.2 | 0.00 | 0.00 | 0.00 | 44 | 1012.3 |
| 20260902232424 | 98 | 360 | 2.6 | 5.2 | 0.00 | 0.00 | 0.00 | 43 | 1012.4 |
| 20260902232325 | 98 | 360 | 1.7 | 5.2 | 0.00 | 0.00 | 0.00 | 43 | 1012.4 |
| 20260902232226 | 98 | 360 | 0.9 | 5.2 | 0.00 | 0.00 | 0.00 | 43 | 1012.4 |
| 20260902232126 | 98 | 360 | 0.9 | 3.5 | 0.00 | 0.00 | 0.00 | 43 | 1012.4 |
| 20260902232048 | 98 | 360 | 1.7 | 3.5 | 0.00 | 0.00 | 0.00 | 43 | 1012.3 |
| 20260902231927 | 98 | 360 | 1.7 | 3.5 | 0.00 | 0.00 | 0.00 | 43 | 1012.3 |
| 20260902231852 | 98 | 360 | 1.7 | 3.5 | 0.00 | 0.00 | 0.00 | 44 | 1012.4 |
| 20260902231731 | 98 | 360 | 0.9 | 4.3 | 0.00 | 0.00 | 0.00 | 43 | 1012.4 |
| 20260902231632 | 98 | 360 | 0.9 | 4.3 | 0.00 | 0.00 | 0.00 | 44 | 1012.3 |
| 20260902231533 | 98 | 360 | 0.9 | 4.3 | 0.00 | 0.00 | 0.00 | 44 | 1012.3 |
| 20260902231453 | 98 | 360 | 0.9 | 5.2 | 0.00 | 0.00 | 0.00 | 43 | 1012.3 |
| 20260902231333 | 98 | 360 | 0.9 | 5.2 | 0.00 | 0.00 | 0.00 | 43 | 1012.3 |
| 20260902231234 | 98 | 360 | 0.9 | 5.2 | 0.00 | 0.00 | 0.00 | 43 | 1012.3 |
| 20260902231118 | 97 | 360 | 1.7 | 5.2 | 0.00 | 0.00 | 0.00 | 43 | 1012.3 |
| 20260902231018 | 97 | 360 | 1.7 | 5.2 | 0.00 | 0.00 | 0.00 | 43 | 1012.3 |
| 20260902230919 | 97 | 360 | 1.7 | 5.2 | 0.00 | 0.00 | 0.00 | 44 | 1012.3 |
| 20260902230820 | 97 | 360 | 2.6 | 5.2 | 0.00 | 0.00 | 0.00 | 44 | 1012.3 |
| 20260902230720 | 97 | 360 | 2.6 | 5.2 | 0.00 | 0.00 | 0.00 | 44 | 1012.3 |
| 20260902230621 | 97 | 360 | 2.6 | 5.2 | 0.00 | 0.00 | 0.00 | 44 | 1012.2 |
| 20260902230526 | 97 | 360 | 2.6 | 5.2 | 0.00 | 0.00 | 0.00 | 44 | 1012.2 |
| 20260902230426 | 97 | 360 | 3.5 | 5.2 | 0.00 | 0.00 | 0.00 | 44 | 1012.3 |
| 20260902230327 | 97 | 360 | 3.5 | 5.2 | 0.00 | 0.00 | 0.00 | 44 | 1012.3 |
| 20260902230228 | 97 | 360 | 3.5 | 5.2 | 0.00 | 0.00 | 0.00 | 44 | 1012.3 |
| 20260902230128 | 97 | 360 | 2.6 | 7.0 | 0.00 | 0.00 | 0.00 | 43 | 1012.3 |
| 20260902230050 | 97 | 360 | 1.7 | 7.0 | 0.00 | 0.00 | 0.00 | 46 | 1012.3 |
| 20260902225929 | 97 | 360 | 0.9 | 7.0 | 0.00 | 0.00 | 0.00 | 46 | 1012.3 |
| 20260902225835 | 97 | 360 | 1.7 | 7.0 | 0.00 | 0.00 | 0.00 | 46 | 1012.3 |
| 20260902225735 | 97 | 360 | 1.7 | 7.0 | 0.00 | 0.00 | 0.00 | 45 | 1012.3 |
| 20260902225655 | 97 | 360 | 1.7 | 7.0 | 0.00 | 0.00 | 0.00 | 45 | 1012.2 |
| 20260902225535 | 97 | 360 | 1.7 | 7.0 | 0.00 | 0.00 | 0.00 | 46 | 1012.2 |
| 20260902225435 | 97 | 360 | 2.6 | 7.0 | 0.00 | 0.00 | 0.00 | 46 | 1012.3 |
| 20260902225335 | 97 | 360 | 3.5 | 7.0 | 0.00 | 0.00 | 0.00 | 46 | 1012.2 |
| 20260902225238 | 97 | 360 | 3.5 | 8.7 | 0.00 | 0.00 | 0.00 | 48 | 1012.2 |
| 20260902225137 | 96 | 360 | 2.6 | 8.7 | 0.00 | 0.00 | 0.00 | 46 | 1012.2 |
| 20260902225021 | 96 | 360 | 2.6 | 8.7 | 0.00 | 0.00 | 0.00 | 47 | 1012.3 |
| 20260902224921 | 96 | 360 | 2.6 | 8.7 | 0.00 | 0.00 | 0.00 | 47 | 1012.2 |
| 20260902224821 | 96 | 360 | 2.6 | 8.7 | 0.00 | 0.00 | 0.00 | 47 | 1012.3 |
| 20260902224722 | 96 | 360 | 3.5 | 8.7 | 0.00 | 0.00 | 0.00 | 46 | 1012.3 |
| 20260902224622 | 96 | 360 | 4.3 | 8.7 | 0.00 | 0.00 | 0.00 | 46 | 1012.3 |
| 20260902224523 | 96 | 360 | 3.5 | 8.7 | 0.00 | 0.00 | 0.00 | 47 | 1012.3 |
| 20260902224422 | 96 | 360 | 4.3 | 8.7 | 0.00 | 0.00 | 0.00 | 47 | 1012.3 |
| 20260902224328 | 96 | 360 | 3.5 | 7.0 | 0.00 | 0.00 | 0.00 | 47 | 1012.3 |
| 20260902224228 | 96 | 360 | 2.6 | 7.0 | 0.00 | 0.00 | 0.00 | 46 | 1012.3 |
| 20260902224128 | 96 | 360 | 2.6 | 7.0 | 0.00 | 0.00 | 0.00 | 47 | 1012.4 |
| 20260902224029 | 97 | 360 | 1.7 | 7.0 | 0.00 | 0.00 | 0.00 | 47 | 1012.3 |
| 20260902223931 | 97 | 360 | 2.6 | 7.0 | 0.00 | 0.00 | 0.00 | 47 | 1012.3 |
| 20260902223852 | 97 | 360 | 2.6 | 7.0 | 0.00 | 0.00 | 0.00 | 47 | 1012.3 |
| 20260902223732 | 97 | 360 | 1.7 | 7.8 | 0.00 | 0.00 | 0.00 | 46 | 1012.3 |
| 20260902223616 | 97 | 360 | 1.7 | 7.8 | 0.00 | 0.00 | 0.00 | 47 | 1012.3 |
| 20260902223517 | 96 | 360 | 1.7 | 7.8 | 0.00 | 0.00 | 0.00 | 47 | 1012.3 |
| 20260902223418 | 96 | 360 | 1.7 | 7.8 | 0.00 | 0.00 | 0.00 | 47 | 1012.3 |
| 20260902223339 | 96 | 360 | 2.6 | 7.8 | 0.00 | 0.00 | 0.00 | 47 | 1012.3 |
| 20260902223239 | 96 | 360 | 2.6 | 7.8 | 0.00 | 0.00 | 0.00 | 47 | 1012.3 |
| 20260902223118 | 96 | 360 | 2.6 | 7.8 | 0.00 | 0.00 | 0.00 | 47 | 1012.3 |
| 20260902223018 | 96 | 360 | 2.6 | 7.8 | 0.00 | 0.00 | 0.00 | 47 | 1012.3 |
| 20260902222923 | 96 | 360 | 2.6 | 7.8 | 0.00 | 0.00 | 0.00 | 47 | 1012.3 |
| 20260902222824 | 96 | 360 | 2.6 | 7.8 | 0.00 | 0.00 | 0.00 | 47 | 1012.3 |
| 20260902222724 | 96 | 360 | 2.6 | 7.8 | 0.00 | 0.00 | 0.00 | 47 | 1012.3 |
| 20260902222624 | 96 | 360 | 2.6 | 7.8 | 0.00 | 0.00 | 0.00 | 47 | 1012.3 |
| 20260902222546 | 96 | 360 | 2.6 | 7.8 | 0.00 | 0.00 | 0.00 | 47 | 1012.4 |
| 20260902222446 | 96 | 360 | 2.6 | 7.8 | 0.00 | 0.00 | 0.00 | 47 | 1012.4 |
| 20260902222325 | 97 | 360 | 2.6 | 7.8 | 0.00 | 0.00 | 0.00 | 46 | 1012.3 |
| 20260902222230 | 97 | 360 | 2.6 | 7.8 | 0.00 | 0.00 | 0.00 | 45 | 1012.4 |
| 20260902222131 | 97 | 360 | 2.6 | 5.2 | 0.00 | 0.00 | 0.00 | 46 | 1012.4 |
| 20260902222031 | 97 | 360 | 1.7 | 5.2 | 0.00 | 0.00 | 0.00 | 46 | 1012.4 |
| 20260902221932 | 97 | 360 | 2.6 | 7.0 | 0.00 | 0.00 | 0.00 | 46 | 1012.4 |
| 20260902221831 | 97 | 360 | 2.6 | 7.0 | 0.00 | 0.00 | 0.00 | 46 | 1012.3 |
| 20260902221732 | 97 | 360 | 2.6 | 7.0 | 0.00 | 0.00 | 0.00 | 46 | 1012.4 |
| 20260902221616 | 97 | 360 | 3.5 | 7.8 | 0.00 | 0.00 | 0.00 | 46 | 1012.4 |
| 20260902221517 | 97 | 360 | 3.5 | 7.8 | 0.00 | 0.00 | 0.00 | 45 | 1012.4 |
| 20260902221418 | 98 | 360 | 3.5 | 7.8 | 0.00 | 0.00 | 0.00 | 45 | 1012.4 |
| 20260902221318 | 98 | 360 | 4.3 | 7.8 | 0.00 | 0.00 | 0.00 | 45 | 1012.4 |
| 20260902221219 | 98 | 360 | 3.5 | 7.8 | 0.00 | 0.00 | 0.00 | 45 | 1012.3 |
| 20260902221119 | 98 | 360 | 2.6 | 7.8 | 0.00 | 0.00 | 0.00 | 45 | 1012.4 |
| 20260902221040 | 98 | 360 | 2.6 | 7.8 | 0.00 | 0.00 | 0.00 | 44 | 1012.4 |
| 20260902220921 | 98 | 360 | 3.5 | 7.8 | 0.00 | 0.00 | 0.00 | 44 | 1012.4 |
| 20260902220843 | 98 | 360 | 4.3 | 7.8 | 0.00 | 0.00 | 0.00 | 45 | 1012.4 |
| 20260902220716 | 98 | 360 | 2.6 | 7.0 | 0.00 | 0.00 | 0.00 | 45 | 1012.4 |
| 20260902220616 | 97 | 360 | 2.6 | 7.0 | 0.00 | 0.00 | 0.00 | 45 | 1012.5 |
| 20260902220535 | 97 | 360 | 1.7 | 5.2 | 0.00 | 0.00 | 0.00 | 45 | 1012.4 |
| 20260902220416 | 97 | 360 | 2.6 | 7.0 | 0.00 | 0.00 | 0.00 | 45 | 1012.5 |
| 20260902220316 | 97 | 360 | 3.5 | 7.0 | 0.00 | 0.00 | 0.00 | 45 | 1012.5 |
| 20260902220220 | 97 | 360 | 3.5 | 7.0 | 0.00 | 0.00 | 0.00 | 45 | 1012.5 |
| 20260902220141 | 97 | 360 | 3.5 | 7.0 | 0.00 | 0.00 | 0.00 | 46 | 1012.5 |
| 20260902220020 | 97 | 360 | 3.5 | 7.8 | 0.00 | 0.00 | 0.00 | 46 | 1012.6 |
| 20260902215922 | 97 | 360 | 2.6 | 7.8 | 0.00 | 0.00 | 0.00 | 47 | 1012.5 |
| 20260902215843 | 97 | 360 | 2.6 | 7.8 | 0.00 | 0.00 | 0.00 | 47 | 1012.5 |
| 20260902215716 | 97 | 360 | 1.7 | 7.8 | 0.00 | 0.00 | 0.00 | 47 | 1012.5 |
| 20260902215637 | 97 | 360 | 1.7 | 7.8 | 0.00 | 0.00 | 0.00 | 47 | 1012.5 |
| 20260902215513 | 96 | 360 | 2.6 | 7.8 | 0.00 | 0.00 | 0.00 | 47 | 1012.5 |
| 20260902215418 | 96 | 360 | 2.6 | 7.8 | 0.00 | 0.00 | 0.00 | 47 | 1012.6 |
| 20260902215320 | 96 | 360 | 3.5 | 7.8 | 0.00 | 0.00 | 0.00 | 47 | 1012.5 |
| 20260902215229 | 96 | 360 | 3.5 | 7.8 | 0.00 | 0.00 | 0.00 | 47 | 1012.5 |
| 20260902215132 | 96 | 360 | 2.6 | 7.8 | 0.00 | 0.00 | 0.00 | 47 | 1012.6 |
| 20260902215014 | 97 | 360 | 2.6 | 7.8 | 0.00 | 0.00 | 0.00 | 47 | 1012.5 |
| 20260902214921 | 97 | 360 | 2.6 | 7.8 | 0.00 | 0.00 | 0.00 | 47 | 1012.6 |
| 20260902214851 | 97 | 360 | 2.6 | 7.8 | 0.00 | 0.00 | 0.00 | 47 | 1012.5 |
| 20260902214733 | 97 | 360 | 3.5 | 7.8 | 0.00 | 0.00 | 0.00 | 47 | 1012.6 |
| 20260902214622 | 97 | 360 | 4.3 | 7.8 | 0.00 | 0.00 | 0.00 | 47 | 1012.6 |
| 20260902214524 | 97 | 360 | 3.5 | 7.8 | 0.00 | 0.00 | 0.00 | 47 | 1012.7 |
| 20260902214427 | 97 | 360 | 2.6 | 7.0 | 0.00 | 0.00 | 0.00 | 47 | 1012.6 |
| 20260902214330 | 97 | 360 | 3.5 | 7.0 | 0.00 | 0.00 | 0.00 | 47 | 1012.7 |
| 20260902214217 | 97 | 360 | 3.5 | 7.0 | 0.00 | 0.00 | 0.00 | 48 | 1012.6 |
| 20260902214126 | 97 | 360 | 3.5 | 7.0 | 0.00 | 0.00 | 0.00 | 47 | 1012.7 |
| 20260902214049 | 97 | 360 | 2.6 | 7.0 | 0.00 | 0.00 | 0.00 | 47 | 1012.7 |
| 20260902213938 | 97 | 360 | 3.5 | 7.0 | 0.00 | 0.00 | 0.00 | 46 | 1012.7 |
| 20260902213821 | 97 | 360 | 2.6 | 7.0 | 0.00 | 0.00 | 0.00 | 46 | 1012.7 |
| 20260902213723 | 97 | 360 | 1.7 | 7.0 | 0.00 | 0.00 | 0.00 | 46 | 1012.7 |
| 20260902213631 | 97 | 360 | 0.9 | 5.2 | 0.00 | 0.00 | 0.00 | 45 | 1012.7 |
| 20260902213540 | 97 | 360 | 1.7 | 5.2 | 0.00 | 0.00 | 0.00 | 45 | 1012.7 |
| 20260902213422 | 97 | 360 | 2.6 | 5.2 | 0.00 | 0.00 | 0.00 | 45 | 1012.7 |
| 20260902213325 | 97 | 360 | 3.5 | 5.2 | 0.00 | 0.00 | 0.00 | 45 | 1012.6 |
| 20260902213214 | 97 | 360 | 2.6 | 7.0 | 0.00 | 0.00 | 0.00 | 44 | 1012.7 |
| 20260902213115 | 98 | 360 | 1.7 | 7.0 | 0.00 | 0.00 | 0.00 | 45 | 1012.7 |
| 20260902213017 | 98 | 360 | 0.9 | 7.0 | 0.00 | 0.00 | 0.00 | 46 | 1012.7 |
| 20260902212951 | 98 | 360 | 0.9 | 7.0 | 0.00 | 0.00 | 0.00 | 46 | 1012.7 |
| 20260902212834 | 98 | 360 | 1.7 | 7.0 | 0.00 | 0.00 | 0.00 | 46 | 1012.7 |
| 20260902212742 | 98 | 360 | 1.7 | 7.0 | 0.00 | 0.00 | 0.00 | 45 | 1012.8 |
| 20260902212624 | 98 | 360 | 2.6 | 7.0 | 0.00 | 0.00 | 0.00 | 45 | 1012.8 |
| 20260902212554 | 98 | 360 | 3.5 | 7.0 | 0.00 | 0.00 | 0.00 | 45 | 1012.8 |
| 20260902212435 | 98 | 360 | 2.6 | 5.2 | 0.00 | 0.00 | 0.00 | 45 | 1012.8 |
| 20260902212317 | 98 | 360 | 2.6 | 4.3 | 0.00 | 0.00 | 0.00 | 45 | 1012.9 |
| 20260902212231 | 98 | 360 | 1.7 | 4.3 | 0.00 | 0.00 | 0.00 | 45 | 1012.8 |
| 20260902212133 | 98 | 360 | 1.7 | 4.3 | 0.00 | 0.00 | 0.00 | 44 | 1012.8 |
| 20260902212016 | 97 | 360 | 1.7 | 4.3 | 0.00 | 0.00 | 0.00 | 46 | 1012.8 |
| 20260902211926 | 97 | 360 | 2.6 | 4.3 | 0.00 | 0.00 | 0.00 | 46 | 1012.8 |
| 20260902211829 | 97 | 360 | 2.6 | 4.3 | 0.00 | 0.00 | 0.00 | 46 | 1012.8 |
| 20260902211732 | 97 | 360 | 2.6 | 4.3 | 0.00 | 0.00 | 0.00 | 46 | 1012.8 |
| 20260902211634 | 97 | 360 | 1.7 | 3.5 | 0.00 | 0.00 | 0.00 | 46 | 1012.8 |
| 20260902211527 | 97 | 360 | 1.7 | 3.5 | 0.00 | 0.00 | 0.00 | 46 | 1012.8 |
| 20260902211430 | 97 | 360 | 0.9 | 3.5 | 0.00 | 0.00 | 0.00 | 46 | 1012.9 |
| 20260902211333 | 97 | 360 | 0.9 | 3.5 | 0.00 | 0.00 | 0.00 | 46 | 1012.9 |
| 20260902211216 | 97 | 360 | 1.7 | 5.2 | 0.00 | 0.00 | 0.00 | 46 | 1012.8 |
| 20260902211125 | 97 | 360 | 1.7 | 5.2 | 0.00 | 0.00 | 0.00 | 46 | 1012.9 |
| 20260902211027 | 97 | 360 | 1.7 | 5.2 | 0.00 | 0.00 | 0.00 | 46 | 1012.9 |
| 20260902210940 | 96 | 360 | 1.7 | 5.2 | 0.00 | 0.00 | 0.00 | 46 | 1012.9 |
| 20260902210841 | 96 | 360 | 2.6 | 5.2 | 0.00 | 0.00 | 0.00 | 47 | 1012.9 |
| 20260902210749 | 96 | 360 | 2.6 | 5.2 | 0.00 | 0.00 | 0.00 | 46 | 1012.9 |
| 20260902210651 | 96 | 360 | 2.6 | 5.2 | 0.00 | 0.00 | 0.00 | 46 | 1012.9 |
| 20260902210513 | 96 | 360 | 3.5 | 5.2 | 0.00 | 0.00 | 0.00 | 46 | 1012.9 |
| 20260902210443 | 96 | 360 | 3.5 | 5.2 | 0.00 | 0.00 | 0.00 | 47 | 1012.9 |
| 20260902210326 | 96 | 360 | 3.5 | 5.2 | 0.00 | 0.00 | 0.00 | 46 | 1012.9 |
| 20260902210235 | 96 | 360 | 3.5 | 5.2 | 0.00 | 0.00 | 0.00 | 46 | 1012.9 |
| 20260902210122 | 96 | 360 | 3.5 | 7.0 | 0.00 | 0.00 | 0.00 | 46 | 1012.9 |
| 20260902210024 | 96 | 360 | 3.5 | 7.0 | 0.00 | 0.00 | 0.00 | 46 | 1013.0 |
| 20260902205926 | 96 | 360 | 3.5 | 7.0 | 0.00 | 0.00 | 0.00 | 46 | 1013.0 |
| 20260902205837 | 96 | 360 | 3.5 | 7.0 | 0.00 | 0.00 | 0.00 | 46 | 1013.0 |
| 20260902205719 | 97 | 360 | 3.5 | 7.0 | 0.00 | 0.00 | 0.00 | 46 | 1013.0 |
| 20260902205624 | 96 | 360 | 3.5 | 7.0 | 0.00 | 0.00 | 0.00 | 46 | 1013.1 |
| 20260902205554 | 96 | 360 | 3.5 | 7.0 | 0.00 | 0.00 | 0.00 | 46 | 1013.1 |
| 20260902205415 | 96 | 360 | 3.5 | 7.0 | 0.00 | 0.00 | 0.00 | 47 | 1013.1 |
| 20260902205318 | 96 | 360 | 3.5 | 7.0 | 0.00 | 0.00 | 0.00 | 46 | 1013.1 |
| 20260902205228 | 97 | 360 | 3.5 | 7.0 | 0.00 | 0.00 | 0.00 | 46 | 1013.1 |
| 20260902205130 | 97 | 360 | 3.5 | 7.0 | 0.00 | 0.00 | 0.00 | 46 | 1013.1 |
| 20260902205033 | 97 | 360 | 3.5 | 7.0 | 0.00 | 0.00 | 0.00 | 46 | 1013.1 |
| 20260902204919 | 97 | 360 | 2.6 | 5.2 | 0.00 | 0.00 | 0.00 | 46 | 1013.2 |
| 20260902204850 | 97 | 360 | 1.7 | 4.3 | 0.00 | 0.00 | 0.00 | 45 | 1013.2 |
| 20260902204738 | 97 | 360 | 0.9 | 4.3 | 0.00 | 0.00 | 0.00 | 45 | 1013.2 |
| 20260902204619 | 97 | 360 | 1.7 | 5.2 | 0.00 | 0.00 | 0.00 | 45 | 1013.2 |
| 20260902204522 | 97 | 360 | 1.7 | 5.2 | 0.00 | 0.00 | 0.00 | 45 | 1013.3 |
| 20260902204452 | 97 | 360 | 1.7 | 5.2 | 0.00 | 0.00 | 0.00 | 45 | 1013.2 |
| 20260902204314 | 97 | 360 | 2.6 | 5.2 | 0.00 | 0.00 | 0.00 | 46 | 1013.2 |
| 20260902204221 | 97 | 360 | 1.7 | 5.2 | 0.00 | 0.00 | 0.00 | 46 | 1013.3 |
| 20260902204131 | 97 | 360 | 1.7 | 5.2 | 0.00 | 0.00 | 0.00 | 46 | 1013.2 |
| 20260902204033 | 97 | 360 | 1.7 | 5.2 | 0.00 | 0.00 | 0.00 | 46 | 1013.2 |
| 20260902203916 | 97 | 360 | 1.7 | 5.2 | 0.00 | 0.00 | 0.00 | 46 | 1013.3 |
| 20260902203819 | 97 | 360 | 1.7 | 5.2 | 0.00 | 0.00 | 0.00 | 47 | 1013.3 |
| 20260902203722 | 97 | 360 | 1.7 | 4.3 | 0.00 | 0.00 | 0.00 | 49 | 1013.2 |
| 20260902203635 | 97 | 360 | 0.9 | 4.3 | 0.00 | 0.00 | 0.00 | 47 | 1013.3 |
| 20260902203538 | 96 | 360 | 0.9 | 4.3 | 0.00 | 0.00 | 0.00 | 46 | 1013.3 |
| 20260902203420 | 96 | 360 | 0.9 | 4.3 | 0.00 | 0.00 | 0.00 | 46 | 1013.3 |
| 20260902203330 | 96 | 360 | 1.7 | 4.3 | 0.00 | 0.00 | 0.00 | 46 | 1013.3 |
| 20260902203232 | 96 | 360 | 1.7 | 4.3 | 0.00 | 0.00 | 0.00 | 46 | 1013.3 |
| 20260902203115 | 97 | 360 | 2.6 | 5.2 | 0.00 | 0.00 | 0.00 | 46 | 1013.3 |
| 20260902203022 | 97 | 360 | 1.7 | 5.2 | 0.00 | 0.00 | 0.00 | 46 | 1013.3 |
| 20260902202932 | 97 | 360 | 1.7 | 5.2 | 0.00 | 0.00 | 0.00 | 46 | 1013.4 |
| 20260902202815 | 97 | 360 | 0.9 | 5.2 | 0.00 | 0.00 | 0.00 | 46 | 1013.4 |
| 20260902202717 | 96 | 360 | 0.9 | 5.2 | 0.00 | 0.00 | 0.00 | 47 | 1013.4 |
| 20260902202620 | 96 | 360 | 1.7 | 5.2 | 0.00 | 0.00 | 0.00 | 47 | 1013.4 |
| 20260902202530 | 96 | 360 | 2.6 | 5.2 | 0.00 | 0.00 | 0.00 | 47 | 1013.4 |
| 20260902202437 | 96 | 360 | 3.5 | 5.2 | 0.00 | 0.00 | 0.00 | 46 | 1013.4 |
| 20260902202318 | 96 | 360 | 3.5 | 5.2 | 0.00 | 0.00 | 0.00 | 46 | 1013.4 |
| 20260902202229 | 96 | 360 | 2.6 | 5.2 | 0.00 | 0.00 | 0.00 | 46 | 1013.4 |
| 20260902202131 | 97 | 360 | 3.5 | 7.8 | 0.00 | 0.00 | 0.00 | 45 | 1013.4 |
| 20260902202014 | 97 | 360 | 2.6 | 7.8 | 0.00 | 0.00 | 0.00 | 46 | 1013.5 |
| 20260902201917 | 97 | 360 | 2.6 | 7.8 | 0.00 | 0.00 | 0.00 | 46 | 1013.5 |
| 20260902201833 | 97 | 360 | 1.7 | 7.8 | 0.00 | 0.00 | 0.00 | 45 | 1013.5 |
| 20260902201735 | 97 | 360 | 0.9 | 7.8 | 0.00 | 0.00 | 0.00 | 45 | 1013.5 |
| 20260902201617 | 97 | 360 | 2.6 | 7.8 | 0.00 | 0.00 | 0.00 | 45 | 1013.5 |
| 20260902201520 | 97 | 360 | 3.5 | 7.8 | 0.00 | 0.00 | 0.00 | 45 | 1013.5 |
| 20260902201424 | 97 | 360 | 4.3 | 7.8 | 0.00 | 0.00 | 0.00 | 45 | 1013.6 |
| 20260902201334 | 97 | 360 | 4.3 | 7.8 | 0.00 | 0.00 | 0.00 | 45 | 1013.6 |
| 20260902201241 | 98 | 360 | 3.5 | 7.8 | 0.00 | 0.00 | 0.00 | 44 | 1013.6 |
| 20260902201122 | 98 | 360 | 2.6 | 7.8 | 0.00 | 0.00 | 0.00 | 44 | 1013.7 |
| 20260902201030 | 98 | 360 | 1.7 | 4.3 | 0.00 | 0.00 | 0.00 | 44 | 1013.6 |
| 20260902200914 | 98 | 360 | 1.7 | 5.2 | 0.00 | 0.00 | 0.00 | 44 | 1013.7 |
| 20260902200816 | 98 | 360 | 1.7 | 5.2 | 0.00 | 0.00 | 0.00 | 44 | 1013.7 |
| 20260902200726 | 98 | 360 | 2.6 | 5.2 | 0.00 | 0.00 | 0.00 | 44 | 1013.7 |
| 20260902200649 | 98 | 360 | 1.7 | 5.2 | 0.00 | 0.00 | 0.00 | 44 | 1013.7 |
| 20260902200515 | 98 | 360 | 1.7 | 5.2 | 0.00 | 0.00 | 0.00 | 44 | 1013.8 |
| 20260902200425 | 98 | 360 | 0.9 | 5.2 | 0.00 | 0.00 | 0.00 | 44 | 1013.7 |
| 20260902200328 | 98 | 360 | 1.7 | 5.2 | 0.00 | 0.00 | 0.00 | 45 | 1013.7 |
| 20260902200258 | 98 | 360 | 1.7 | 5.2 | 0.00 | 0.00 | 0.00 | 44 | 1013.8 |
| 20260902200119 | 98 | 360 | 1.7 | 5.2 | 0.00 | 0.00 | 0.00 | 45 | 1013.8 |
| 20260902200021 | 98 | 360 | 1.7 | 5.2 | 0.00 | 0.00 | 0.00 | 46 | 1013.9 |
| 20260902195931 | 97 | 360 | 0.9 | 5.2 | 0.00 | 0.00 | 0.00 | 46 | 1013.9 |
| 20260902195818 | 97 | 360 | 0.9 | 5.2 | 0.00 | 0.00 | 0.00 | 45 | 1013.9 |
| 20260902195720 | 97 | 360 | 0.9 | 5.2 | 0.00 | 0.00 | 0.00 | 46 | 1013.9 |
| 20260902195622 | 97 | 360 | 1.7 | 5.2 | 0.00 | 0.00 | 0.00 | 46 | 1013.9 |
| 20260902195534 | 97 | 360 | 1.7 | 5.2 | 0.00 | 0.00 | 0.00 | 46 | 1014.0 |
| 20260902195435 | 97 | 360 | 2.6 | 5.2 | 0.00 | 0.00 | 0.00 | 45 | 1013.9 |
| 20260902195320 | 98 | 360 | 2.6 | 4.3 | 0.00 | 0.00 | 0.00 | 45 | 1014.0 |
| 20260902195223 | 98 | 360 | 2.6 | 4.3 | 0.00 | 0.00 | 0.00 | 45 | 1014.0 |
| 20260902195153 | 98 | 360 | 2.6 | 4.3 | 0.00 | 0.00 | 0.00 | 44 | 1014.0 |
| 20260902195015 | 98 | 360 | 2.6 | 4.3 | 0.00 | 0.00 | 0.00 | 44 | 1014.0 |
| 20260902194917 | 98 | 360 | 1.7 | 4.3 | 0.00 | 0.00 | 0.00 | 44 | 1014.0 |
| 20260902194820 | 98 | 360 | 1.7 | 3.5 | 0.00 | 0.00 | 0.00 | 44 | 1014.1 |
| 20260902194729 | 99 | 360 | 1.7 | 3.5 | 0.00 | 0.00 | 0.00 | 44 | 1014.1 |
| 20260902194636 | 99 | 360 | 1.7 | 3.5 | 0.00 | 0.00 | 0.00 | 43 | 1014.0 |
| 20260902194518 | 99 | 360 | 1.7 | 3.5 | 0.00 | 0.00 | 0.00 | 43 | 1014.1 |
| 20260902194428 | 99 | 360 | 0.9 | 3.5 | 0.00 | 0.00 | 0.00 | 43 | 1014.1 |
| 20260902194331 | 99 | 360 | 0.9 | 3.5 | 0.00 | 0.00 | 0.00 | 42 | 1014.0 |
| 20260902194213 | 99 | 360 | 0.9 | 3.5 | 0.00 | 0.00 | 0.00 | 42 | 1014.1 |
| 20260902194116 | 99 | 360 | 1.7 | 3.5 | 0.00 | 0.00 | 0.00 | 41 | 1014.1 |
| 20260902194030 | 99 | 360 | 1.7 | 3.5 | 0.00 | 0.00 | 0.00 | 41 | 1014.1 |
| 20260902193953 | 99 | 360 | 1.7 | 3.5 | 0.00 | 0.00 | 0.00 | 41 | 1014.2 |
| 20260902193815 | 99 | 360 | 1.7 | 2.6 | 0.00 | 0.00 | 0.00 | 41 | 1014.2 |
| 20260902193725 | 99 | 360 | 0.9 | 2.6 | 0.00 | 0.00 | 0.00 | 41 | 1014.2 |
| 20260902193647 | 99 | 360 | 0.9 | 2.6 | 0.00 | 0.00 | 0.00 | 43 | 1014.2 |
| 20260902193536 | 99 | 360 | 0.9 | 2.6 | 0.00 | 0.00 | 0.00 | 43 | 1014.2 |
| 20260902193422 | 99 | 360 | 1.7 | 2.6 | 0.00 | 0.00 | 0.00 | 44 | 1014.1 |
| 20260902193325 | 99 | 360 | 1.7 | 3.5 | 0.00 | 0.00 | 0.00 | 44 | 1014.3 |
| 20260902193255 | 99 | 360 | 1.7 | 3.5 | 0.00 | 0.00 | 0.00 | 44 | 1014.2 |
| 20260902193117 | 99 | 360 | 1.7 | 3.5 | 0.00 | 0.00 | 0.00 | 43 | 1014.3 |
| 20260902193019 | 99 | 360 | 1.7 | 3.5 | 0.00 | 0.00 | 0.00 | 44 | 1014.3 |
| 20260902192922 | 99 | 360 | 1.7 | 3.5 | 0.00 | 0.00 | 0.00 | 44 | 1014.3 |
| 20260902192825 | 99 | 360 | 1.7 | 3.5 | 0.00 | 0.00 | 0.00 | 43 | 1014.3 |
| 20260902192738 | 99 | 360 | 1.7 | 3.5 | 0.00 | 0.00 | 0.00 | 43 | 1014.3 |
| 20260902192620 | 99 | 360 | 1.7 | 4.3 | 0.00 | 0.00 | 0.00 | 43 | 1014.3 |
| 20260902192523 | 99 | 360 | 1.7 | 4.3 | 0.00 | 0.00 | 0.00 | 43 | 1014.3 |
| 20260902192433 | 99 | 360 | 1.7 | 4.3 | 0.00 | 0.00 | 0.00 | 43 | 1014.3 |
| 20260902192315 | 99 | 360 | 1.7 | 4.3 | 0.00 | 0.00 | 0.00 | 43 | 1014.3 |
| 20260902192217 | 99 | 360 | 1.7 | 4.3 | 0.00 | 0.00 | 0.00 | 42 | 1014.3 |
| 20260902192131 | 99 | 360 | 1.7 | 4.3 | 0.00 | 0.00 | 0.00 | 42 | 1014.4 |
| 20260902192033 | 99 | 360 | 1.7 | 4.3 | 0.00 | 0.00 | 0.00 | 42 | 1014.3 |
| 20260902191943 | 100 | 360 | 1.7 | 4.3 | 0.00 | 0.00 | 0.00 | 42 | 1014.3 |
| 20260902191824 | 100 | 360 | 1.7 | 4.3 | 0.00 | 0.00 | 0.00 | 42 | 1014.4 |
| 20260902191754 | 100 | 360 | 1.7 | 4.3 | 0.00 | 0.00 | 0.00 | 42 | 1014.3 |
| 20260902191616 | 100 | 360 | 1.7 | 4.3 | 0.00 | 0.00 | 0.00 | 42 | 1014.4 |
| 20260902191518 | 100 | 360 | 1.7 | 4.3 | 0.00 | 0.00 | 0.00 | 42 | 1014.4 |
| 20260902191425 | 100 | 360 | 1.7 | 4.3 | 0.00 | 0.00 | 0.00 | 42 | 1014.6 |
| 20260902191314 | 100 | 360 | 1.7 | 5.2 | 0.00 | 0.00 | 0.00 | 42 | 1014.5 |
| 20260902191214 | 100 | 360 | 1.7 | 5.2 | 0.00 | 0.00 | 0.00 | 43 | 1014.5 |
| 20260902191124 | 100 | 360 | 1.7 | 5.2 | 0.00 | 0.00 | 0.00 | 42 | 1014.6 |
| 20260902191027 | 100 | 360 | 1.7 | 5.2 | 0.00 | 0.00 | 0.00 | 42 | 1014.6 |
| 20260902190929 | 100 | 360 | 2.6 | 5.2 | 0.00 | 0.00 | 0.00 | 41 | 1014.6 |
| 20260902190838 | 101 | 360 | 2.6 | 5.2 | 0.00 | 0.00 | 0.00 | 41 | 1014.6 |
| 20260902190743 | 101 | 360 | 2.6 | 5.2 | 0.00 | 0.00 | 0.00 | 40 | 1014.6 |
| 20260902190629 | 102 | 360 | 2.6 | 5.2 | 0.00 | 0.00 | 0.00 | 40 | 1014.7 |
| 20260902190530 | 102 | 360 | 2.6 | 5.2 | 0.00 | 0.00 | 0.00 | 40 | 1014.7 |
| 20260902190418 | 103 | 360 | 2.6 | 5.2 | 0.00 | 0.00 | 0.00 | 39 | 1014.7 |
| 20260902190321 | 103 | 360 | 2.6 | 5.2 | 0.00 | 0.00 | 0.00 | 40 | 1014.7 |
| 20260902190222 | 103 | 360 | 2.6 | 5.2 | 0.00 | 0.00 | 0.00 | 39 | 1014.7 |
| 20260902190130 | 103 | 360 | 1.7 | 4.3 | 0.00 | 0.00 | 0.00 | 39 | 1014.6 |
| 20260902190033 | 103 | 360 | 0.9 | 4.3 | 0.00 | 0.00 | 0.00 | 39 | 1014.6 |
| 20260902185918 | 103 | 360 | 0.9 | 3.5 | 0.00 | 0.00 | 0.00 | 39 | 1014.6 |
| 20260902185827 | 103 | 360 | 0.9 | 3.5 | 0.00 | 0.00 | 0.00 | 39 | 1014.7 |
| 20260902185723 | 103 | 263 | 1.7 | 3.5 | 0.00 | 0.00 | 0.00 | 40 | 1014.6 |
| 20260902185631 | 102 | 265 | 1.7 | 3.5 | 0.00 | 0.00 | 0.00 | 39 | 1014.7 |
| 20260902185533 | 102 | 360 | 1.7 | 3.5 | 0.00 | 0.00 | 0.00 | 39 | 1014.7 |
| 20260902185442 | 102 | 360 | 1.7 | 3.5 | 0.00 | 0.00 | 0.00 | 39 | 1014.7 |
| 20260902185316 | 102 | 360 | 1.7 | 3.5 | 0.00 | 0.00 | 0.00 | 39 | 1014.8 |
| 20260902185248 | 103 | 360 | 2.6 | 3.5 | 0.00 | 0.00 | 0.00 | 39 | 1014.8 |
| 20260902185136 | 103 | 360 | 2.6 | 3.5 | 0.00 | 0.00 | 0.00 | 38 | 1014.8 |
| 20260902185017 | 104 | 360 | 1.7 | 3.5 | 0.00 | 0.00 | 0.00 | 38 | 1014.9 |
| 20260902184919 | 104 | 360 | 1.7 | 3.5 | 0.00 | 0.00 | 0.00 | 38 | 1015.0 |
| 20260902184820 | 104 | 360 | 1.7 | 3.5 | 0.00 | 0.00 | 0.00 | 38 | 1014.9 |
| 20260902184749 | 104 | 360 | 1.7 | 4.3 | 0.00 | 0.00 | 0.00 | 37 | 1014.9 |
| 20260902184630 | 104 | 360 | 1.7 | 4.3 | 0.00 | 0.00 | 0.00 | 38 | 1014.9 |
| 20260902184524 | 104 | 360 | 1.7 | 4.3 | 0.00 | 0.00 | 0.00 | 38 | 1014.9 |
| 20260902184426 | 104 | 360 | 1.7 | 4.3 | 0.00 | 0.00 | 0.00 | 39 | 1015.0 |
| 20260902184329 | 104 | 360 | 1.7 | 4.3 | 0.00 | 0.00 | 0.00 | 39 | 1015.0 |
| 20260902184237 | 104 | 360 | 1.7 | 5.2 | 0.00 | 0.00 | 0.00 | 39 | 1014.9 |
| 20260902184137 | 103 | 360 | 2.6 | 5.2 | 0.00 | 0.00 | 0.00 | 39 | 1015.0 |
| 20260902184017 | 103 | 360 | 1.7 | 5.2 | 0.00 | 0.00 | 0.00 | 40 | 1014.9 |
| 20260902183925 | 102 | 360 | 1.7 | 5.2 | 0.00 | 0.00 | 0.00 | 40 | 1015.0 |
| 20260902183833 | 102 | 360 | 1.7 | 5.2 | 0.00 | 0.00 | 0.00 | 40 | 1014.9 |
| 20260902183717 | 102 | 257 | 1.7 | 5.2 | 0.00 | 0.00 | 0.00 | 40 | 1015.0 |
| 20260902183618 | 102 | 360 | 2.6 | 5.2 | 0.00 | 0.00 | 0.00 | 40 | 1015.0 |
| 20260902183527 | 103 | 360 | 2.6 | 5.2 | 0.00 | 0.00 | 0.00 | 38 | 1015.0 |
| 20260902183427 | 103 | 360 | 1.7 | 5.2 | 0.00 | 0.00 | 0.00 | 38 | 1015.0 |
| 20260902183337 | 104 | 360 | 1.7 | 5.2 | 0.00 | 0.00 | 0.00 | 38 | 1015.1 |
| 20260902183220 | 104 | 360 | 1.7 | 5.2 | 0.00 | 0.00 | 0.00 | 38 | 1015.1 |
| 20260902183117 | 105 | 360 | 1.7 | 5.2 | 0.00 | 0.00 | 0.00 | 37 | 1015.0 |
| 20260902183029 | 105 | 360 | 1.7 | 5.2 | 0.00 | 0.00 | 0.00 | 37 | 1015.1 |
| 20260902182929 | 105 | 360 | 1.7 | 8.7 | 0.00 | 0.00 | 0.00 | 37 | 1015.1 |
| 20260902182817 | 106 | 360 | 1.7 | 8.7 | 0.00 | 0.00 | 0.00 | 36 | 1015.1 |
| 20260902182717 | 107 | 360 | 0.9 | 8.7 | 0.00 | 0.00 | 0.00 | 36 | 1015.1 |
| 20260902182646 | 107 | 360 | 0.9 | 8.7 | 0.00 | 0.00 | 0.00 | 37 | 1015.2 |
| 20260902182524 | 106 | 360 | 1.7 | 8.7 | 0.00 | 0.00 | 0.00 | 37 | 1015.1 |
| 20260902182433 | 106 | 360 | 2.6 | 8.7 | 0.00 | 0.00 | 0.00 | 37 | 1015.1 |
| 20260902182353 | 106 | 360 | 2.6 | 8.7 | 0.00 | 0.00 | 0.00 | 37 | 1015.1 |
| 20260902182224 | 106 | 360 | 1.7 | 8.7 | 0.00 | 0.00 | 0.00 | 37 | 1015.2 |
| 20260902182120 | 106 | 216 | 1.7 | 7.8 | 0.00 | 0.00 | 0.00 | 37 | 1015.2 |
| 20260902182028 | 106 | 360 | 0.9 | 3.5 | 0.00 | 0.00 | 0.00 | 37 | 1015.2 |
| 20260902181936 | 106 | 360 | 0.9 | 3.5 | 0.00 | 0.00 | 0.00 | 37 | 1015.2 |
| 20260902181833 | 105 | 360 | 1.7 | 3.5 | 0.00 | 0.00 | 0.00 | 38 | 1015.2 |
| 20260902181721 | 105 | 360 | 1.7 | 3.5 | 0.00 | 0.00 | 0.00 | 38 | 1015.2 |
| 20260902181642 | 105 | 360 | 1.7 | 3.5 | 0.00 | 0.00 | 0.00 | 39 | 1015.2 |
| 20260902181529 | 104 | 360 | 1.7 | 3.5 | 0.00 | 0.00 | 0.00 | 39 | 1015.3 |
| 20260902181436 | 104 | 360 | 1.7 | 3.5 | 0.00 | 0.00 | 0.00 | 39 | 1015.3 |
| 20260902181315 | 103 | 360 | 0.9 | 5.2 | 0.00 | 0.00 | 0.00 | 41 | 1015.4 |
| 20260902181220 | 102 | 360 | 0.9 | 5.2 | 0.00 | 0.00 | 0.00 | 41 | 1015.3 |
| 20260902181149 | 101 | 360 | 1.7 | 5.2 | 0.00 | 0.00 | 0.00 | 42 | 1015.4 |
| 20260902181031 | 100 | 360 | 1.7 | 5.2 | 0.00 | 0.00 | 0.00 | 43 | 1015.4 |
| 20260902180914 | 99 | 360 | 0.9 | 7.0 | 0.00 | 0.00 | 0.00 | 43 | 1015.4 |
| 20260902180821 | 99 | 360 | 1.7 | 7.0 | 0.00 | 0.00 | 0.00 | 43 | 1015.4 |
| 20260902180750 | 98 | 360 | 2.6 | 7.0 | 0.00 | 0.00 | 0.00 | 44 | 1015.4 |
| 20260902180629 | 98 | 360 | 2.6 | 7.0 | 0.00 | 0.00 | 0.00 | 44 | 1015.5 |
| 20260902180539 | 98 | 360 | 2.6 | 7.0 | 0.00 | 0.00 | 0.00 | 44 | 1015.4 |
| 20260902180424 | 98 | 360 | 2.6 | 8.7 | 0.00 | 0.00 | 0.00 | 44 | 1015.4 |
| 20260902180326 | 98 | 360 | 3.5 | 8.7 | 0.00 | 0.00 | 0.00 | 45 | 1015.5 |
| 20260902180236 | 98 | 360 | 3.5 | 8.7 | 0.00 | 0.00 | 0.00 | 45 | 1015.5 |
| 20260902180131 | 97 | 360 | 3.5 | 8.7 | 0.00 | 0.00 | 0.00 | 44 | 1015.5 |
| 20260902180035 | 98 | 360 | 2.6 | 8.7 | 0.00 | 0.00 | 0.00 | 46 | 1015.5 |
| 20260902175918 | 97 | 360 | 3.5 | 8.7 | 0.00 | 0.00 | 0.00 | 46 | 1015.5 |
| 20260902175822 | 97 | 360 | 4.3 | 8.7 | 0.00 | 0.00 | 0.00 | 45 | 1015.5 |
| 20260902175725 | 97 | 360 | 4.3 | 8.7 | 0.00 | 0.00 | 0.00 | 45 | 1015.6 |
| 20260902175637 | 97 | 360 | 3.5 | 8.7 | 0.00 | 0.00 | 0.00 | 44 | 1015.6 |
| 20260902175518 | 98 | 360 | 3.5 | 7.8 | 0.00 | 0.00 | 0.00 | 44 | 1015.6 |
| 20260902175421 | 98 | 360 | 4.3 | 7.8 | 0.00 | 0.00 | 0.00 | 44 | 1015.7 |
| 20260902175329 | 98 | 360 | 3.5 | 7.8 | 0.00 | 0.00 | 0.00 | 44 | 1015.7 |
| 20260902175232 | 99 | 360 | 2.6 | 7.8 | 0.00 | 0.00 | 0.00 | 43 | 1015.7 |
| 20260902175115 | 99 | 360 | 2.6 | 7.0 | 0.00 | 0.00 | 0.00 | 42 | 1015.8 |
| 20260902175025 | 99 | 360 | 3.5 | 7.0 | 0.00 | 0.00 | 0.00 | 42 | 1015.8 |
| 20260902174932 | 100 | 360 | 3.5 | 7.0 | 0.00 | 0.00 | 0.00 | 42 | 1015.8 |
| 20260902174901 | 100 | 360 | 3.5 | 7.8 | 0.00 | 0.00 | 0.00 | 42 | 1015.8 |
| 20260902174723 | 99 | 360 | 1.7 | 8.7 | 0.00 | 0.00 | 0.00 | 43 | 1015.8 |
| 20260902174626 | 99 | 360 | 1.7 | 8.7 | 0.00 | 0.00 | 0.00 | 43 | 1015.9 |
| 20260902174528 | 99 | 360 | 1.7 | 8.7 | 0.00 | 0.00 | 0.00 | 43 | 1015.8 |
| 20260902174439 | 99 | 360 | 1.7 | 8.7 | 0.00 | 0.00 | 0.00 | 43 | 1015.8 |
| 20260902174345 | 99 | 360 | 2.6 | 8.7 | 0.00 | 0.00 | 0.00 | 43 | 1015.8 |
| 20260902174227 | 98 | 360 | 4.3 | 8.7 | 0.00 | 0.00 | 0.00 | 43 | 1015.9 |
| 20260902174137 | 99 | 360 | 4.3 | 8.7 | 0.00 | 0.00 | 0.00 | 42 | 1015.9 |
| 20260902174040 | 100 | 177 | 2.6 | 8.7 | 0.00 | 0.00 | 0.00 | 42 | 1015.9 |
| 20260902173921 | 100 | 360 | 2.6 | 8.7 | 0.00 | 0.00 | 0.00 | 42 | 1015.9 |
| 20260902173824 | 100 | 360 | 1.7 | 8.7 | 0.00 | 0.00 | 0.00 | 43 | 1015.9 |
| 20260902173713 | 99 | 360 | 2.6 | 8.7 | 0.00 | 0.00 | 0.00 | 44 | 1016.0 |
| 20260902173540 | 99 | 360 | 3.5 | 8.7 | 0.00 | 0.00 | 0.00 | 43 | 1016.0 |
| 20260902173422 | 99 | 360 | 2.6 | 7.8 | 0.00 | 0.00 | 0.00 | 44 | 1015.9 |
| 20260902173324 | 99 | 360 | 1.7 | 7.8 | 0.00 | 0.00 | 0.00 | 44 | 1015.9 |
| 20260902173234 | 98 | 360 | 1.7 | 7.8 | 0.00 | 0.00 | 0.00 | 45 | 1016.1 |
| 20260902173137 | 98 | 360 | 1.7 | 7.8 | 0.00 | 0.00 | 0.00 | 45 | 1016.1 |
| 20260902173045 | 98 | 360 | 3.5 | 7.8 | 0.00 | 0.00 | 0.00 | 44 | 1016.1 |
| 20260902172931 | 98 | 360 | 4.3 | 7.8 | 0.00 | 0.00 | 0.00 | 44 | 1016.0 |
| 20260902172815 | 98 | 360 | 4.3 | 7.8 | 0.00 | 0.00 | 0.00 | 44 | 1016.0 |
| 20260902172717 | 99 | 360 | 3.5 | 7.0 | 0.00 | 0.00 | 0.00 | 43 | 1016.1 |
| 20260902172627 | 99 | 360 | 2.6 | 7.0 | 0.00 | 0.00 | 0.00 | 42 | 1016.2 |
| 20260902172529 | 99 | 360 | 1.7 | 7.0 | 0.00 | 0.00 | 0.00 | 44 | 1016.0 |
| 20260902172432 | 99 | 360 | 1.7 | 7.0 | 0.00 | 0.00 | 0.00 | 44 | 1016.0 |
| 20260902172319 | 98 | 360 | 2.6 | 7.0 | 0.00 | 0.00 | 0.00 | 44 | 1016.1 |
| 20260902172229 | 99 | 360 | 3.5 | 7.0 | 0.00 | 0.00 | 0.00 | 43 | 1016.2 |
| 20260902172151 | 99 | 360 | 3.5 | 7.0 | 0.00 | 0.00 | 0.00 | 43 | 1016.2 |
| 20260902172013 | 100 | 360 | 3.5 | 7.0 | 0.00 | 0.00 | 0.00 | 42 | 1016.2 |
| 20260902171923 | 100 | 360 | 3.5 | 7.0 | 0.00 | 0.00 | 0.00 | 42 | 1016.2 |
| 20260902171846 | 100 | 135 | 2.6 | 5.2 | 0.00 | 0.00 | 0.00 | 41 | 1016.2 |
| 20260902171735 | 101 | 360 | 2.6 | 5.2 | 0.00 | 0.00 | 0.00 | 40 | 1016.2 |
| 20260902171641 | 102 | 360 | 1.7 | 5.2 | 0.00 | 0.00 | 0.00 | 40 | 1016.3 |
| 20260902171549 | 103 | 360 | 0.9 | 4.3 | 0.00 | 0.00 | 0.00 | 40 | 1016.3 |
| 20260902171431 | 102 | 360 | 0.9 | 1.7 | 0.00 | 0.00 | 0.00 | 41 | 1016.3 |
| 20260902171342 | 102 | 360 | 0.9 | 3.5 | 0.00 | 0.00 | 0.00 | 41 | 1016.3 |
| 20260902171223 | 102 | 360 | 0.9 | 4.3 | 0.00 | 0.00 | 0.00 | 41 | 1016.3 |
| 20260902171126 | 101 | 360 | 0.9 | 4.3 | 0.00 | 0.00 | 0.00 | 41 | 1016.4 |
| 20260902171036 | 101 | 360 | 0.9 | 4.3 | 0.00 | 0.00 | 0.00 | 40 | 1016.4 |
| 20260902170922 | 102 | 360 | 0.9 | 4.3 | 0.00 | 0.00 | 0.00 | 40 | 1016.4 |
| 20260902170845 | 102 | 360 | 0.9 | 5.2 | 0.00 | 0.00 | 0.00 | 41 | 1016.4 |
| 20260902170734 | 101 | 360 | 0.9 | 5.2 | 0.00 | 0.00 | 0.00 | 41 | 1016.4 |
| 20260902170637 | 101 | 360 | 1.7 | 5.2 | 0.00 | 0.00 | 0.00 | 42 | 1016.5 |
| 20260902170520 | 100 | 360 | 1.7 | 7.0 | 0.00 | 0.00 | 0.00 | 42 | 1016.4 |
| 20260902170423 | 100 | 360 | 2.6 | 8.7 | 0.00 | 0.00 | 0.00 | 42 | 1016.5 |
| 20260902170331 | 100 | 360 | 2.6 | 8.7 | 0.00 | 0.00 | 0.00 | 42 | 1016.5 |
| 20260902170217 | 101 | 360 | 2.6 | 8.7 | 0.00 | 0.00 | 0.00 | 41 | 1016.5 |
| 20260902170120 | 101 | 360 | 2.6 | 8.7 | 0.00 | 0.00 | 0.00 | 41 | 1016.5 |
| 20260902170050 | 101 | 360 | 1.7 | 8.7 | 0.00 | 0.00 | 0.00 | 41 | 1016.5 |
| 20260902165932 | 101 | 360 | 2.6 | 8.7 | 0.00 | 0.00 | 0.00 | 42 | 1016.5 |
| 20260902165815 | 101 | 360 | 3.5 | 7.8 | 0.00 | 0.00 | 0.00 | 43 | 1016.6 |
| 20260902165718 | 101 | 360 | 4.3 | 7.8 | 0.00 | 0.00 | 0.00 | 42 | 1016.6 |
| 20260902165631 | 101 | 360 | 3.5 | 7.8 | 0.00 | 0.00 | 0.00 | 42 | 1016.5 |
| 20260902165514 | 102 | 360 | 2.6 | 5.2 | 0.00 | 0.00 | 0.00 | 42 | 1016.5 |
| 20260902165417 | 102 | 360 | 1.7 | 5.2 | 0.00 | 0.00 | 0.00 | 42 | 1016.5 |
| 20260902165326 | 102 | 360 | 1.7 | 4.3 | 0.00 | 0.00 | 0.00 | 43 | 1016.5 |
| 20260902165229 | 101 | 360 | 1.7 | 4.3 | 0.00 | 0.00 | 0.00 | 43 | 1016.5 |
| 20260902165132 | 101 | 360 | 1.7 | 4.3 | 0.00 | 0.00 | 0.00 | 43 | 1016.6 |
| 20260902165046 | 100 | 360 | 1.7 | 7.0 | 0.00 | 0.00 | 0.00 | 44 | 1016.6 |
| 20260902164929 | 100 | 360 | 1.7 | 7.0 | 0.00 | 0.00 | 0.00 | 43 | 1016.6 |
| 20260902164836 | 100 | 360 | 1.7 | 7.0 | 0.00 | 0.00 | 0.00 | 44 | 1016.6 |
| 20260902164719 | 100 | 360 | 1.7 | 7.0 | 0.00 | 0.00 | 0.00 | 44 | 1016.7 |
| 20260902164621 | 99 | 360 | 2.6 | 7.0 | 0.00 | 0.00 | 0.00 | 44 | 1016.6 |
| 20260902164530 | 99 | 360 | 2.6 | 7.0 | 0.00 | 0.00 | 0.00 | 43 | 1016.7 |
| 20260902164414 | 100 | 360 | 2.6 | 7.0 | 0.00 | 0.00 | 0.00 | 43 | 1016.7 |
| 20260902163633 | 97 | 360 | 1.7 | 5.2 | 0.00 | 0.00 | 0.00 | 46 | 1016.7 |
| 20260902163517 | 97 | 360 | 1.7 | 7.0 | 0.00 | 0.00 | 0.00 | 46 | 1016.7 |
| 20260902163437 | 97 | 360 | 1.7 | 7.0 | 0.00 | 0.00 | 0.00 | 47 | 1016.7 |
| 20260902163317 | 97 | 360 | 0.9 | 8.7 | 0.00 | 0.00 | 0.00 | 47 | 1016.7 |
| 20260902163217 | 97 | 360 | 0.9 | 8.7 | 0.00 | 0.00 | 0.00 | 48 | 1016.7 |
| 20260902163118 | 96 | 360 | 0.9 | 8.7 | 0.00 | 0.00 | 0.00 | 49 | 1016.7 |
| 20260902163019 | 96 | 360 | 1.7 | 8.7 | 0.00 | 0.00 | 0.00 | 49 | 1016.7 |
| 20260902162918 | 96 | 360 | 2.6 | 8.7 | 0.00 | 0.00 | 0.00 | 48 | 1016.8 |
| 20260902162838 | 96 | 360 | 3.5 | 8.7 | 0.00 | 0.00 | 0.00 | 48 | 1016.8 |
| 20260902162720 | 96 | 360 | 3.5 | 8.7 | 0.00 | 0.00 | 0.00 | 48 | 1016.8 |
| 20260902162642 | 96 | 360 | 3.5 | 8.7 | 0.00 | 0.00 | 0.00 | 48 | 1016.8 |
| 20260902162520 | 96 | 360 | 3.5 | 8.7 | 0.00 | 0.00 | 0.00 | 47 | 1016.8 |
| 20260902162418 | 96 | 360 | 2.6 | 7.8 | 0.00 | 0.00 | 0.00 | 47 | 1016.8 |
| 20260902162318 | 97 | 360 | 1.7 | 5.2 | 0.00 | 0.00 | 0.00 | 47 | 1016.8 |
| 20260902162220 | 97 | 360 | 1.7 | 4.3 | 0.00 | 0.00 | 0.00 | 46 | 1016.8 |
| 20260902162122 | 97 | 360 | 2.6 | 4.3 | 0.00 | 0.00 | 0.00 | 46 | 1016.9 |
| 20260902162022 | 97 | 360 | 2.6 | 5.2 | 0.00 | 0.00 | 0.00 | 46 | 1016.9 |
| 20260902161925 | 98 | 360 | 1.7 | 5.2 | 0.00 | 0.00 | 0.00 | 46 | 1016.8 |
| 20260902161824 | 98 | 360 | 1.7 | 5.2 | 0.00 | 0.00 | 0.00 | 46 | 1016.8 |
| 20260902161725 | 98 | 360 | 1.7 | 5.2 | 0.00 | 0.00 | 0.00 | 46 | 1016.8 |
| 20260902161625 | 98 | 360 | 1.7 | 5.2 | 0.00 | 0.00 | 0.00 | 47 | 1016.8 |
| 20260902161525 | 98 | 360 | 2.6 | 5.2 | 0.00 | 0.00 | 0.00 | 48 | 1016.9 |
| 20260902161424 | 98 | 360 | 2.6 | 5.2 | 0.00 | 0.00 | 0.00 | 47 | 1016.8 |
| 20260902161322 | 99 | 360 | 2.6 | 5.2 | 0.00 | 0.00 | 0.00 | 46 | 1016.9 |
| 20260902161222 | 99 | 360 | 1.7 | 5.2 | 0.00 | 0.00 | 0.00 | 46 | 1016.8 |
| 20260902161125 | 99 | 360 | 1.7 | 4.3 | 0.00 | 0.00 | 0.00 | 47 | 1016.8 |
| 20260902161024 | 99 | 360 | 1.7 | 4.3 | 0.00 | 0.00 | 0.00 | 48 | 1016.8 |
| 20260902160924 | 98 | 360 | 1.7 | 4.3 | 0.00 | 0.00 | 0.00 | 48 | 1016.9 |
| 20260902160844 | 97 | 360 | 0.9 | 5.2 | 0.00 | 0.00 | 0.00 | 49 | 1016.8 |
| 20260902160724 | 97 | 360 | 1.7 | 5.2 | 0.00 | 0.00 | 0.00 | 48 | 1016.9 |
| 20260902160624 | 97 | 360 | 0.9 | 5.2 | 0.00 | 0.00 | 0.00 | 49 | 1016.9 |
| 20260902160525 | 96 | 360 | 1.7 | 5.2 | 0.00 | 0.00 | 0.00 | 49 | 1016.9 |
| 20260902160426 | 96 | 360 | 0.9 | 5.2 | 0.00 | 0.00 | 0.00 | 49 | 1016.9 |
| 20260902160330 | 96 | 360 | 0.9 | 5.2 | 0.00 | 0.00 | 0.00 | 49 | 1016.9 |
| 20260902160230 | 96 | 360 | 1.7 | 5.2 | 0.00 | 0.00 | 0.00 | 48 | 1016.9 |
| 20260902160131 | 96 | 360 | 1.7 | 5.2 | 0.00 | 0.00 | 0.00 | 48 | 1016.9 |
| 20260902160051 | 97 | 360 | 1.7 | 5.2 | 0.00 | 0.00 | 0.00 | 47 | 1016.9 |
| 20260902155931 | 98 | 360 | 1.7 | 5.2 | 0.00 | 0.00 | 0.00 | 47 | 1016.9 |
| 20260902155834 | 98 | 360 | 0.9 | 5.2 | 0.00 | 0.00 | 0.00 | 47 | 1016.9 |
| 20260902155732 | 98 | 360 | 0.9 | 5.2 | 0.00 | 0.00 | 0.00 | 47 | 1016.9 |
| 20260902155617 | 98 | 360 | 0.9 | 7.0 | 0.00 | 0.00 | 0.00 | 49 | 1016.9 |
| 20260902155517 | 97 | 360 | 0.9 | 7.0 | 0.00 | 0.00 | 0.00 | 50 | 1016.8 |
| 20260902155416 | 97 | 360 | 1.7 | 7.0 | 0.00 | 0.00 | 0.00 | 50 | 1016.8 |
| 20260902155337 | 96 | 360 | 2.6 | 7.0 | 0.00 | 0.00 | 0.00 | 50 | 1016.8 |
| 20260902155216 | 96 | 360 | 2.6 | 7.0 | 0.00 | 0.00 | 0.00 | 50 | 1016.9 |
| 20260902155117 | 96 | 360 | 3.5 | 7.0 | 0.00 | 0.00 | 0.00 | 50 | 1016.8 |
| 20260902155037 | 96 | 360 | 3.5 | 7.0 | 0.00 | 0.00 | 0.00 | 49 | 1016.9 |
| 20260902154933 | 97 | 360 | 2.6 | 7.0 | 0.00 | 0.00 | 0.00 | 49 | 1016.9 |
| 20260902154817 | 97 | 360 | 2.6 | 7.0 | 0.00 | 0.00 | 0.00 | 48 | 1016.8 |
| 20260902154716 | 98 | 360 | 1.7 | 4.3 | 0.00 | 0.00 | 0.00 | 49 | 1016.9 |
| 20260902154616 | 97 | 360 | 1.7 | 4.3 | 0.00 | 0.00 | 0.00 | 50 | 1016.8 |
| 20260902154517 | 97 | 360 | 1.7 | 7.0 | 0.00 | 0.00 | 0.00 | 51 | 1016.8 |
| 20260902154437 | 97 | 360 | 1.7 | 7.0 | 0.00 | 0.00 | 0.00 | 51 | 1016.9 |
| 20260902154317 | 97 | 360 | 1.7 | 7.0 | 0.00 | 0.00 | 0.00 | 51 | 1016.9 |
| 20260902154218 | 96 | 360 | 0.9 | 7.0 | 0.00 | 0.00 | 0.00 | 52 | 1016.8 |
| 20260902154123 | 96 | 360 | 0.9 | 7.0 | 0.00 | 0.00 | 0.00 | 52 | 1016.9 |
| 20260902154023 | 95 | 360 | 0.9 | 7.0 | 0.00 | 0.00 | 0.00 | 52 | 1016.8 |
| 20260902153924 | 95 | 360 | 1.7 | 7.0 | 0.00 | 0.00 | 0.00 | 52 | 1016.9 |
| 20260902153824 | 95 | 360 | 1.7 | 7.0 | 0.00 | 0.00 | 0.00 | 52 | 1016.8 |
| 20260902153725 | 94 | 360 | 3.5 | 7.0 | 0.00 | 0.00 | 0.00 | 52 | 1016.9 |
| 20260902153626 | 94 | 360 | 2.6 | 7.0 | 0.00 | 0.00 | 0.00 | 52 | 1016.9 |
| 20260902153526 | 94 | 360 | 2.6 | 7.0 | 0.00 | 0.00 | 0.00 | 54 | 1016.8 |
| 20260902153431 | 94 | 360 | 0.9 | 5.2 | 0.00 | 0.00 | 0.00 | 55 | 1016.8 |
| 20260902153332 | 94 | 360 | 1.7 | 5.2 | 0.00 | 0.00 | 0.00 | 56 | 1016.9 |
| 20260902153233 | 93 | 360 | 1.7 | 7.0 | 0.00 | 0.00 | 0.00 | 56 | 1016.8 |
| 20260902153132 | 93 | 360 | 1.7 | 7.8 | 0.00 | 0.00 | 0.00 | 56 | 1016.9 |
| 20260902153033 | 92 | 360 | 1.7 | 7.8 | 0.00 | 0.00 | 0.00 | 55 | 1016.8 |
| 20260902152933 | 92 | 360 | 1.7 | 7.8 | 0.00 | 0.00 | 0.00 | 56 | 1016.8 |
| 20260902152819 | 92 | 360 | 2.6 | 7.8 | 0.00 | 0.00 | 0.00 | 57 | 1016.9 |
| 20260902152717 | 92 | 360 | 3.5 | 7.8 | 0.00 | 0.00 | 0.00 | 56 | 1016.9 |
| 20260902152617 | 92 | 360 | 3.5 | 7.8 | 0.00 | 0.00 | 0.00 | 56 | 1016.8 |
| 20260902152517 | 92 | 360 | 3.5 | 7.8 | 0.00 | 0.00 | 0.00 | 56 | 1016.9 |
| 20260902152418 | 92 | 360 | 2.6 | 7.8 | 0.00 | 0.00 | 0.00 | 55 | 1016.8 |
| 20260902152317 | 92 | 360 | 3.5 | 7.8 | 0.00 | 0.00 | 0.00 | 56 | 1016.8 |
| 20260902152218 | 93 | 360 | 3.5 | 7.8 | 0.00 | 0.00 | 0.00 | 56 | 1016.9 |
| 20260902152142 | 93 | 360 | 3.5 | 7.0 | 0.00 | 0.00 | 0.00 | 56 | 1016.9 |
| 20260902152022 | 93 | 360 | 2.6 | 7.0 | 0.00 | 0.00 | 0.00 | 56 | 1016.8 |
| 20260902151923 | 93 | 360 | 3.5 | 7.0 | 0.00 | 0.00 | 0.00 | 56 | 1016.8 |
| 20260902151824 | 93 | 360 | 2.6 | 7.0 | 0.00 | 0.00 | 0.00 | 58 | 1016.8 |
| 20260902151724 | 92 | 360 | 1.7 | 7.0 | 0.00 | 0.00 | 0.00 | 58 | 1016.9 |
| 20260902151624 | 92 | 360 | 1.7 | 7.0 | 0.00 | 0.00 | 0.00 | 58 | 1016.7 |
| 20260902151524 | 92 | 360 | 2.6 | 7.0 | 0.00 | 0.00 | 0.00 | 58 | 1016.8 |
| 20260902151429 | 91 | 360 | 2.6 | 7.0 | 0.00 | 0.00 | 0.00 | 58 | 1016.8 |
| 20260902151328 | 91 | 360 | 2.6 | 7.0 | 0.00 | 0.00 | 0.00 | 59 | 1016.8 |
| 20260902151249 | 91 | 360 | 2.6 | 7.0 | 0.00 | 0.00 | 0.00 | 59 | 1016.8 |
| 20260902151147 | 91 | 360 | 3.5 | 7.0 | 0.00 | 0.00 | 0.00 | 59 | 1016.7 |
| 20260902151046 | 91 | 360 | 2.6 | 7.0 | 0.00 | 0.00 | 0.00 | 60 | 1016.8 |
| 20260902150925 | 91 | 360 | 2.6 | 7.0 | 0.00 | 0.00 | 0.00 | 61 | 1016.8 |
| 20260902150825 | 90 | 360 | 1.7 | 5.2 | 0.00 | 0.00 | 0.00 | 61 | 1016.8 |
| 20260902150726 | 90 | 360 | 1.7 | 7.0 | 0.00 | 0.00 | 0.00 | 62 | 1016.8 |
| 20260902150651 | 89 | 360 | 1.7 | 7.0 | 0.00 | 0.00 | 0.00 | 62 | 1016.8 |
| 20260902150529 | 89 | 360 | 1.7 | 7.0 | 0.00 | 0.00 | 0.00 | 62 | 1016.8 |
| 20260902150427 | 89 | 360 | 2.6 | 8.7 | 0.00 | 0.00 | 0.00 | 61 | 1016.8 |
| 20260902150327 | 90 | 360 | 2.6 | 8.7 | 0.00 | 0.00 | 0.00 | 61 | 1016.9 |
| 20260902150228 | 89 | 360 | 3.5 | 8.7 | 0.00 | 0.00 | 0.00 | 61 | 1016.8 |
| 20260902150129 | 89 | 360 | 3.5 | 8.7 | 0.00 | 0.00 | 0.00 | 61 | 1016.8 |
| 20260902150029 | 89 | 360 | 3.5 | 8.7 | 0.00 | 0.00 | 0.00 | 61 | 1016.8 |
| 20260902145934 | 89 | 360 | 2.6 | 8.7 | 0.00 | 0.00 | 0.00 | 62 | 1016.8 |
| 20260902145835 | 89 | 360 | 2.6 | 8.7 | 0.00 | 0.00 | 0.00 | 62 | 1016.9 |
| 20260902145735 | 89 | 360 | 2.6 | 8.7 | 0.00 | 0.00 | 0.00 | 62 | 1016.8 |
| 20260902145635 | 89 | 360 | 3.5 | 8.7 | 0.00 | 0.00 | 0.00 | 63 | 1016.9 |
| 20260902145534 | 89 | 360 | 2.6 | 8.7 | 0.00 | 0.00 | 0.00 | 63 | 1016.8 |
| 20260902145424 | 89 | 360 | 2.6 | 8.7 | 0.00 | 0.00 | 0.00 | 63 | 1016.9 |
| 20260902145328 | 89 | 360 | 2.6 | 8.7 | 0.00 | 0.00 | 0.00 | 63 | 1016.8 |
| 20260902145229 | 89 | 360 | 2.6 | 8.7 | 0.00 | 0.00 | 0.00 | 63 | 1016.9 |
| 20260902145128 | 88 | 360 | 3.5 | 8.7 | 0.00 | 0.00 | 0.00 | 63 | 1016.9 |
| 20260902145029 | 88 | 360 | 3.5 | 8.7 | 0.00 | 0.00 | 0.00 | 63 | 1016.8 |
| 20260902144930 | 88 | 360 | 3.5 | 8.7 | 0.00 | 0.00 | 0.00 | 63 | 1016.9 |
| 20260902144830 | 88 | 360 | 3.5 | 8.7 | 0.00 | 0.00 | 0.00 | 63 | 1016.9 |
| 20260902144731 | 88 | 360 | 3.5 | 8.7 | 0.00 | 0.00 | 0.00 | 63 | 1016.9 |
| 20260902144617 | 88 | 360 | 3.5 | 8.7 | 0.00 | 0.00 | 0.00 | 63 | 1016.9 |
| 20260902144516 | 88 | 360 | 4.3 | 8.7 | 0.00 | 0.00 | 0.00 | 64 | 1016.9 |
| 20260902144417 | 88 | 360 | 4.3 | 8.7 | 0.00 | 0.00 | 0.00 | 63 | 1016.9 |
| 20260902144318 | 88 | 360 | 4.3 | 8.7 | 0.00 | 0.00 | 0.00 | 63 | 1016.9 |
| 20260902144218 | 89 | 360 | 3.5 | 8.7 | 0.00 | 0.00 | 0.00 | 63 | 1016.9 |
| 20260902144118 | 89 | 360 | 3.5 | 8.7 | 0.00 | 0.00 | 0.00 | 63 | 1016.9 |
| 20260902144023 | 89 | 360 | 3.5 | 7.0 | 0.00 | 0.00 | 0.00 | 63 | 1016.9 |
| 20260902143923 | 89 | 360 | 2.6 | 7.0 | 0.00 | 0.00 | 0.00 | 63 | 1016.9 |
| 20260902143826 | 89 | 360 | 2.6 | 7.0 | 0.00 | 0.00 | 0.00 | 64 | 1016.9 |
| 20260902143744 | 89 | 360 | 2.6 | 7.0 | 0.00 | 0.00 | 0.00 | 65 | 1016.9 |
| 20260902143642 | 89 | 360 | 1.7 | 7.0 | 0.00 | 0.00 | 0.00 | 66 | 1016.9 |
| 20260902143542 | 89 | 360 | 0.9 | 5.2 | 0.00 | 0.00 | 0.00 | 67 | 1016.9 |
| 20260902143441 | 88 | 360 | 0.9 | 3.5 | 0.00 | 0.00 | 0.00 | 67 | 1016.9 |
| 20260902143342 | 88 | 360 | 1.7 | 3.5 | 0.00 | 0.00 | 0.00 | 67 | 1017.0 |
| 20260902143242 | 88 | 360 | 1.7 | 3.5 | 0.00 | 0.00 | 0.00 | 67 | 1017.0 |
| 20260902143125 | 88 | 360 | 1.7 | 3.5 | 0.00 | 0.00 | 0.00 | 66 | 1017.0 |
| 20260902143025 | 88 | 360 | 1.7 | 3.5 | 0.00 | 0.00 | 0.00 | 66 | 1017.0 |
| 20260902142926 | 88 | 322 | 1.7 | 3.5 | 0.00 | 0.00 | 0.00 | 67 | 1017.0 |
| 20260902142828 | 88 | 323 | 1.7 | 3.5 | 0.00 | 0.00 | 0.00 | 67 | 1017.0 |
| 20260902142728 | 88 | 360 | 0.9 | 3.5 | 0.00 | 0.00 | 0.00 | 67 | 1016.9 |
| 20260902142648 | 88 | 295 | 0.9 | 3.5 | 0.00 | 0.00 | 0.00 | 69 | 1017.0 |
| 20260902142527 | 87 | 360 | 0.9 | 3.5 | 0.00 | 0.00 | 0.00 | 69 | 1017.0 |
| 20260902142449 | 87 | 360 | 0.9 | 3.5 | 0.00 | 0.00 | 0.00 | 69 | 1017.0 |
| 20260902142331 | 87 | 360 | 0.9 | 3.5 | 0.00 | 0.00 | 0.00 | 70 | 1017.0 |
| 20260902142231 | 86 | 360 | 1.7 | 3.5 | 0.00 | 0.00 | 0.00 | 70 | 1017.0 |
| 20260902142131 | 86 | 360 | 1.7 | 3.5 | 0.00 | 0.00 | 0.00 | 69 | 1017.0 |
| 20260902142052 | 86 | 360 | 1.7 | 2.6 | 0.00 | 0.00 | 0.00 | 69 | 1017.1 |
| 20260902141951 | 86 | 360 | 2.6 | 2.6 | 0.00 | 0.00 | 0.00 | 69 | 1017.1 |
| 20260902141830 | 86 | 290 | 1.7 | 2.6 | 0.00 | 0.00 | 0.00 | 70 | 1017.0 |
| 20260902141730 | 86 | 360 | 1.7 | 2.6 | 0.00 | 0.00 | 0.00 | 72 | 1017.0 |
| 20260902141631 | 85 | 360 | 0.9 | 2.6 | 0.00 | 0.00 | 0.00 | 72 | 1017.0 |
| 20260902141535 | 85 | 360 | 0.9 | 2.6 | 0.00 | 0.00 | 0.00 | 72 | 1017.1 |
| 20260902141436 | 85 | 360 | 0.9 | 2.6 | 0.00 | 0.00 | 0.00 | 72 | 1017.0 |
| 20260902141335 | 84 | 360 | 0.9 | 2.6 | 0.00 | 0.00 | 0.00 | 72 | 1017.1 |
| 20260902141236 | 84 | 360 | 1.7 | 2.6 | 0.00 | 0.00 | 0.00 | 72 | 1017.0 |
| 20260902141135 | 84 | 360 | 0.9 | 2.6 | 0.00 | 0.00 | 0.00 | 72 | 1017.1 |
| 20260902141035 | 84 | 171 | 0.9 | 3.5 | 0.00 | 0.00 | 0.00 | 72 | 1017.0 |
| 20260902140936 | 84 | 360 | 0.9 | 2.6 | 0.00 | 0.00 | 0.00 | 72 | 1017.0 |
| 20260902140820 | 83 | 171 | 1.7 | 2.6 | 0.00 | 0.00 | 0.00 | 72 | 1017.1 |
| 20260902140720 | 83 | 360 | 1.7 | 2.6 | 0.00 | 0.00 | 0.00 | 72 | 1017.0 |
| 20260902140621 | 83 | 360 | 1.7 | 2.6 | 0.00 | 0.00 | 0.00 | 72 | 1017.0 |
| 20260902140542 | 83 | 360 | 0.9 | 2.6 | 0.00 | 0.00 | 0.00 | 73 | 1017.0 |
| 20260902140420 | 83 | 360 | 0.9 | 2.6 | 0.00 | 0.00 | 0.00 | 73 | 1017.1 |
| 20260902140321 | 83 | 360 | 0.9 | 2.6 | 0.00 | 0.00 | 0.00 | 73 | 1017.0 |
| 20260902140221 | 83 | 171 | 0.9 | 2.6 | 0.00 | 0.00 | 0.00 | 73 | 1017.1 |
| 20260902140126 | 82 | 171 | 0.9 | 2.6 | 0.00 | 0.00 | 0.00 | 74 | 1017.0 |
| 20260902140025 | 82 | 360 | 0.9 | 2.6 | 0.00 | 0.00 | 0.00 | 74 | 1017.1 |
| 20260902135926 | 82 | 170 | 0.0 | 1.7 | 0.00 | 0.00 | 0.00 | 74 | 1017.0 |
| 20260902135828 | 82 | 170 | 0.0 | 1.7 | 0.00 | 0.00 | 0.00 | 74 | 1017.1 |
| 20260902135728 | 82 | 171 | 0.0 | 1.7 | 0.00 | 0.00 | 0.00 | 75 | 1017.1 |
| 20260902135628 | 82 | 170 | 0.0 | 1.7 | 0.00 | 0.00 | 0.00 | 74 | 1017.1 |
| 20260902135529 | 82 | 170 | 0.0 | 1.7 | 0.00 | 0.00 | 0.00 | 75 | 1017.0 |
| 20260902135433 | 82 | 170 | 0.0 | 0.0 | 0.00 | 0.00 | 0.00 | 75 | 1017.0 |
| 20260902135354 | 82 | 170 | 0.0 | 0.0 | 0.00 | 0.00 | 0.00 | 76 | 1017.0 |
| 20260902135254 | 81 | 170 | 0.0 | 0.0 | 0.00 | 0.00 | 0.00 | 76 | 1017.0 |
| 20260902135133 | 81 | 170 | 0.0 | 0.0 | 0.00 | 0.00 | 0.00 | 76 | 1017.0 |
| 20260902135033 | 81 | 170 | 0.0 | 0.0 | 0.00 | 0.00 | 0.00 | 76 | 1017.0 |
| 20260902134934 | 81 | 170 | 0.0 | 0.0 | 0.00 | 0.00 | 0.00 | 76 | 1017.0 |
| 20260902134834 | 81 | 170 | 0.0 | 0.0 | 0.00 | 0.00 | 0.00 | 77 | 1016.9 |
| 20260902134719 | 81 | 170 | 0.0 | 0.0 | 0.00 | 0.00 | 0.00 | 77 | 1016.9 |
| 20260902134619 | 81 | 170 | 0.0 | 0.0 | 0.00 | 0.00 | 0.00 | 77 | 1016.9 |
| 20260902134520 | 81 | 170 | 0.0 | 0.0 | 0.00 | 0.00 | 0.00 | 77 | 1017.0 |
| 20260902134420 | 80 | 170 | 0.0 | 0.0 | 0.00 | 0.00 | 0.00 | 77 | 1016.9 |
| 20260902134321 | 80 | 170 | 0.0 | 0.0 | 0.00 | 0.00 | 0.00 | 77 | 1016.9 |
| 20260902134221 | 80 | 170 | 0.0 | 0.0 | 0.00 | 0.00 | 0.00 | 77 | 1016.9 |
| 20260902134125 | 80 | 170 | 0.0 | 0.0 | 0.00 | 0.00 | 0.00 | 77 | 1016.9 |
| 20260902134027 | 80 | 170 | 0.0 | 0.0 | 0.00 | 0.00 | 0.00 | 77 | 1016.8 |
| 20260902133948 | 80 | 360 | 0.0 | 0.0 | 0.00 | 0.00 | 0.00 | 77 | 1016.9 |
| 20260902133827 | 80 | 360 | 0.0 | 0.0 | 0.00 | 0.00 | 0.00 | 77 | 1016.9 |
| 20260902133728 | 80 | 170 | 0.0 | 0.0 | 0.00 | 0.00 | 0.00 | 77 | 1016.9 |
| 20260902133629 | 80 | 170 | 0.0 | 0.0 | 0.00 | 0.00 | 0.00 | 77 | 1016.9 |
| 20260902133529 | 80 | 171 | 0.0 | 0.0 | 0.00 | 0.00 | 0.00 | 77 | 1016.8 |
| 20260902133430 | 80 | 171 | 0.0 | 0.0 | 0.00 | 0.00 | 0.00 | 78 | 1016.8 |
| 20260902133334 | 80 | 170 | 0.0 | 0.0 | 0.00 | 0.00 | 0.00 | 77 | 1016.8 |
| 20260902133235 | 80 | 360 | 0.0 | 0.0 | 0.00 | 0.00 | 0.00 | 77 | 1016.8 |
| 20260902133135 | 80 | 360 | 0.0 | 0.0 | 0.00 | 0.00 | 0.00 | 77 | 1016.8 |
| 20260902133016 | 79 | 171 | 0.0 | 1.7 | 0.00 | 0.00 | 0.00 | 78 | 1016.8 |
| 20260902132917 | 79 | 171 | 0.0 | 1.7 | 0.00 | 0.00 | 0.00 | 78 | 1016.8 |
| 20260902132838 | 79 | 170 | 0.0 | 1.7 | 0.00 | 0.00 | 0.00 | 77 | 1016.8 |
| 20260902132721 | 79 | 170 | 0.0 | 1.7 | 0.00 | 0.00 | 0.00 | 77 | 1016.8 |
| 20260902132620 | 79 | 170 | 0.0 | 1.7 | 0.00 | 0.00 | 0.00 | 77 | 1016.8 |
| 20260902132521 | 79 | 360 | 0.0 | 1.7 | 0.00 | 0.00 | 0.00 | 77 | 1016.8 |
| 20260902132442 | 79 | 360 | 0.0 | 1.7 | 0.00 | 0.00 | 0.00 | 77 | 1016.8 |
| 20260902132322 | 79 | 171 | 0.9 | 1.7 | 0.00 | 0.00 | 0.00 | 77 | 1016.8 |
| 20260902132222 | 79 | 171 | 0.9 | 1.7 | 0.00 | 0.00 | 0.00 | 77 | 1016.8 |
| 20260902132124 | 79 | 171 | 0.9 | 1.7 | 0.00 | 0.00 | 0.00 | 77 | 1016.7 |
| 20260902132028 | 79 | 360 | 0.9 | 1.7 | 0.00 | 0.00 | 0.00 | 77 | 1016.8 |
| 20260902131929 | 79 | 360 | 0.9 | 1.7 | 0.00 | 0.00 | 0.00 | 77 | 1016.7 |
| 20260902131831 | 79 | 360 | 0.9 | 1.7 | 0.00 | 0.00 | 0.00 | 77 | 1016.7 |
| 20260902131729 | 79 | 360 | 0.9 | 1.7 | 0.00 | 0.00 | 0.00 | 78 | 1016.7 |
| 20260902131630 | 79 | 170 | 0.9 | 1.7 | 0.00 | 0.00 | 0.00 | 78 | 1016.6 |
| 20260902131530 | 79 | 171 | 0.9 | 1.7 | 0.00 | 0.00 | 0.00 | 78 | 1016.7 |
| 20260902131431 | 79 | 171 | 0.9 | 1.7 | 0.00 | 0.00 | 0.00 | 78 | 1016.7 |
| 20260902131335 | 79 | 170 | 0.9 | 1.7 | 0.00 | 0.00 | 0.00 | 78 | 1016.6 |
| 20260902131216 | 79 | 360 | 0.0 | 1.7 | 0.00 | 0.00 | 0.00 | 78 | 1016.6 |
| 20260902131116 | 79 | 360 | 0.0 | 1.7 | 0.00 | 0.00 | 0.00 | 78 | 1016.7 |
| 20260902131016 | 79 | 360 | 0.0 | 1.7 | 0.00 | 0.00 | 0.00 | 79 | 1016.6 |
| 20260902130917 | 79 | 360 | 0.9 | 1.7 | 0.00 | 0.00 | 0.00 | 79 | 1016.6 |
| 20260902130817 | 78 | 170 | 0.9 | 1.7 | 0.00 | 0.00 | 0.00 | 79 | 1016.6 |
| 20260902130721 | 78 | 170 | 0.9 | 1.7 | 0.00 | 0.00 | 0.00 | 79 | 1016.6 |
| 20260902130622 | 78 | 360 | 0.9 | 1.7 | 0.00 | 0.00 | 0.00 | 79 | 1016.6 |
| 20260902130522 | 78 | 360 | 0.9 | 1.7 | 0.00 | 0.00 | 0.00 | 79 | 1016.6 |
| 20260902130443 | 78 | 360 | 0.9 | 1.7 | 0.00 | 0.00 | 0.00 | 79 | 1016.6 |
| 20260902130341 | 78 | 170 | 0.9 | 1.7 | 0.00 | 0.00 | 0.00 | 79 | 1016.7 |
| 20260902130221 | 78 | 170 | 0.9 | 1.7 | 0.00 | 0.00 | 0.00 | 79 | 1016.6 |
| 20260902130122 | 78 | 170 | 0.9 | 1.7 | 0.00 | 0.00 | 0.00 | 79 | 1016.5 |
| 20260902130042 | 78 | 360 | 0.9 | 1.7 | 0.00 | 0.00 | 0.00 | 79 | 1016.6 |
| 20260902125925 | 78 | 360 | 0.9 | 1.7 | 0.00 | 0.00 | 0.00 | 79 | 1016.5 |
| 20260902125827 | 78 | 360 | 0.9 | 1.7 | 0.00 | 0.00 | 0.00 | 79 | 1016.6 |
| 20260902125726 | 78 | 360 | 0.9 | 1.7 | 0.00 | 0.00 | 0.00 | 79 | 1016.6 |
| 20260902125627 | 78 | 360 | 0.0 | 1.7 | 0.00 | 0.00 | 0.00 | 80 | 1016.5 |
| 20260902125528 | 78 | 360 | 0.0 | 0.9 | 0.00 | 0.00 | 0.00 | 80 | 1016.5 |
| 20260902125428 | 78 | 170 | 0.0 | 0.9 | 0.00 | 0.00 | 0.00 | 80 | 1016.6 |
| 20260902125329 | 77 | 360 | 0.0 | 0.9 | 0.00 | 0.00 | 0.00 | 80 | 1016.6 |
| 20260902125233 | 77 | 170 | 0.0 | 0.0 | 0.00 | 0.00 | 0.00 | 80 | 1016.5 |
| 20260902125132 | 77 | 360 | 0.0 | 0.0 | 0.00 | 0.00 | 0.00 | 80 | 1016.6 |
| 20260902125033 | 77 | 360 | 0.0 | 0.0 | 0.00 | 0.00 | 0.00 | 81 | 1016.5 |
| 20260902124953 | 77 | 170 | 0.0 | 0.0 | 0.00 | 0.00 | 0.00 | 81 | 1016.5 |
| 20260902124832 | 77 | 360 | 0.0 | 0.0 | 0.00 | 0.00 | 0.00 | 80 | 1016.5 |
| 20260902124753 | 77 | 360 | 0.0 | 0.0 | 0.00 | 0.00 | 0.00 | 80 | 1016.4 |
| 20260902124654 | 77 | 360 | 0.0 | 0.0 | 0.00 | 0.00 | 0.00 | 80 | 1016.5 |
| 20260902124533 | 77 | 360 | 0.0 | 0.0 | 0.00 | 0.00 | 0.00 | 80 | 1016.5 |
| 20260902124417 | 77 | 360 | 0.0 | 0.0 | 0.00 | 0.00 | 0.00 | 80 | 1016.4 |
| 20260902124318 | 77 | 171 | 0.0 | 0.0 | 0.00 | 0.00 | 0.00 | 80 | 1016.4 |
| 20260902124218 | 76 | 360 | 0.0 | 0.0 | 0.00 | 0.00 | 0.00 | 80 | 1016.4 |
| 20260902124120 | 76 | 360 | 0.0 | 0.0 | 0.00 | 0.00 | 0.00 | 80 | 1016.4 |
| 20260902124021 | 76 | 360 | 0.0 | 0.0 | 0.00 | 0.00 | 0.00 | 80 | 1016.4 |
| 20260902123921 | 76 | 360 | 0.0 | 0.0 | 0.00 | 0.00 | 0.00 | 80 | 1016.3 |
| 20260902123825 | 76 | 360 | 0.0 | 0.0 | 0.00 | 0.00 | 0.00 | 80 | 1016.3 |
| 20260902123725 | 76 | 360 | 0.0 | 0.0 | 0.00 | 0.00 | 0.00 | 80 | 1016.4 |
| 20260902123626 | 76 | 170 | 0.0 | 0.0 | 0.00 | 0.00 | 0.00 | 80 | 1016.3 |
| 20260902123526 | 76 | 360 | 0.0 | 0.0 | 0.00 | 0.00 | 0.00 | 80 | 1016.4 |
| 20260902123426 | 76 | 360 | 0.0 | 0.0 | 0.00 | 0.00 | 0.00 | 80 | 1016.4 |
| 20260902123327 | 76 | 360 | 0.0 | 0.0 | 0.00 | 0.00 | 0.00 | 80 | 1016.3 |
| 20260902123248 | 76 | 360 | 0.0 | 0.0 | 0.00 | 0.00 | 0.00 | 80 | 1016.4 |
| 20260902123148 | 76 | 360 | 0.0 | 0.0 | 0.00 | 0.00 | 0.00 | 80 | 1016.4 |
| 20260902123053 | 76 | 360 | 0.0 | 0.0 | 0.00 | 0.00 | 0.00 | 81 | 1016.3 |
| 20260902122932 | 76 | 360 | 0.0 | 0.0 | 0.00 | 0.00 | 0.00 | 81 | 1016.3 |
| 20260902122834 | 76 | 360 | 0.0 | 0.0 | 0.00 | 0.00 | 0.00 | 81 | 1016.2 |
| 20260902122734 | 76 | 360 | 0.0 | 0.0 | 0.00 | 0.00 | 0.00 | 81 | 1016.1 |
| 20260902122635 | 76 | 170 | 0.0 | 0.0 | 0.00 | 0.00 | 0.00 | 80 | 1016.2 |
| 20260902122516 | 76 | 170 | 0.0 | 0.0 | 0.00 | 0.00 | 0.00 | 80 | 1016.2 |
| 20260902122419 | 76 | 170 | 0.0 | 0.0 | 0.00 | 0.00 | 0.00 | 80 | 1016.2 |
| 20260902122321 | 76 | 170 | 0.0 | 0.0 | 0.00 | 0.00 | 0.00 | 80 | 1016.2 |
| 20260902122242 | 76 | 170 | 0.0 | 0.0 | 0.00 | 0.00 | 0.00 | 80 | 1016.2 |
| 20260902122121 | 76 | 170 | 0.0 | 0.0 | 0.00 | 0.00 | 0.00 | 80 | 1016.2 |
| 20260902122021 | 76 | 170 | 0.0 | 0.0 | 0.00 | 0.00 | 0.00 | 80 | 1016.2 |
| 20260902121922 | 76 | 170 | 0.0 | 0.0 | 0.00 | 0.00 | 0.00 | 80 | 1016.2 |
| 20260902121823 | 76 | 170 | 0.0 | 0.9 | 0.00 | 0.00 | 0.00 | 80 | 1016.1 |
| 20260902121728 | 76 | 170 | 0.0 | 0.9 | 0.00 | 0.00 | 0.00 | 80 | 1016.1 |
| 20260902121628 | 76 | 170 | 0.0 | 0.9 | 0.00 | 0.00 | 0.00 | 80 | 1016.1 |
| 20260902121528 | 76 | 170 | 0.0 | 0.9 | 0.00 | 0.00 | 0.00 | 80 | 1016.1 |
| 20260902121449 | 76 | 170 | 0.0 | 1.7 | 0.00 | 0.00 | 0.00 | 80 | 1016.1 |
| 20260902121329 | 76 | 170 | 0.0 | 1.7 | 0.00 | 0.00 | 0.00 | 80 | 1016.1 |
| 20260902121230 | 76 | 170 | 0.0 | 1.7 | 0.00 | 0.00 | 0.00 | 80 | 1016.1 |
| 20260902121131 | 76 | 170 | 0.0 | 1.7 | 0.00 | 0.00 | 0.00 | 80 | 1016.2 |
| 20260902121035 | 76 | 170 | 0.0 | 1.7 | 0.00 | 0.00 | 0.00 | 80 | 1016.1 |
| 20260902120936 | 76 | 360 | 0.0 | 1.7 | 0.00 | 0.00 | 0.00 | 80 | 1016.1 |
| 20260902120816 | 76 | 360 | 0.9 | 1.7 | 0.00 | 0.00 | 0.00 | 80 | 1016.1 |
| 20260902120716 | 76 | 360 | 0.9 | 1.7 | 0.00 | 0.00 | 0.00 | 80 | 1016.1 |
| 20260902120637 | 76 | 360 | 0.9 | 1.7 | 0.00 | 0.00 | 0.00 | 80 | 1016.1 |
| 20260902120517 | 76 | 360 | 0.0 | 1.7 | 0.00 | 0.00 | 0.00 | 80 | 1016.0 |
| 20260902120417 | 76 | 360 | 0.0 | 0.9 | 0.00 | 0.00 | 0.00 | 80 | 1016.1 |
| 20260902120322 | 76 | 360 | 0.0 | 0.0 | 0.00 | 0.00 | 0.00 | 80 | 1016.0 |
| 20260902120223 | 76 | 360 | 0.0 | 0.0 | 0.00 | 0.00 | 0.00 | 80 | 1016.1 |
| 20260902120123 | 76 | 170 | 0.0 | 0.0 | 0.00 | 0.00 | 0.00 | 80 | 1016.1 |
| 20260902120025 | 76 | 170 | 0.0 | 0.0 | 0.00 | 0.00 | 0.00 | 80 | 1016.1 |
| 20260902115926 | 76 | 170 | 0.0 | 0.0 | 0.00 | 0.00 | 0.00 | 81 | 1016.1 |
| 20260902115826 | 76 | 170 | 0.0 | 0.0 | 0.00 | 0.00 | 0.00 | 81 | 1016.1 |
| 20260902115730 | 76 | 170 | 0.0 | 0.0 | 0.00 | 0.00 | 0.00 | 81 | 1016.1 |
| 20260902115631 | 76 | 169 | 0.0 | 0.0 | 0.00 | 0.00 | 0.00 | 81 | 1016.1 |
| 20260902115530 | 76 | 360 | 0.0 | 0.0 | 0.00 | 0.00 | 0.00 | 81 | 1016.0 |
| 20260902115431 | 76 | 170 | 0.0 | 0.0 | 0.00 | 0.00 | 0.00 | 81 | 1016.1 |
| 20260902115332 | 76 | 360 | 0.0 | 0.0 | 0.00 | 0.00 | 0.00 | 81 | 1016.0 |
| 20260902115233 | 76 | 169 | 0.0 | 0.0 | 0.00 | 0.00 | 0.00 | 81 | 1016.1 |
| 20260902115134 | 76 | 360 | 0.0 | 0.0 | 0.00 | 0.00 | 0.00 | 81 | 1016.0 |
| 20260902115019 | 76 | 360 | 0.0 | 0.9 | 0.00 | 0.00 | 0.00 | 81 | 1016.1 |
| 20260902114920 | 76 | 360 | 0.0 | 0.9 | 0.00 | 0.00 | 0.00 | 81 | 1016.0 |
| 20260902114822 | 76 | 360 | 0.0 | 0.9 | 0.00 | 0.00 | 0.00 | 81 | 1016.0 |
| 20260902114723 | 76 | 360 | 0.0 | 0.9 | 0.00 | 0.00 | 0.00 | 81 | 1016.0 |
| 20260902114621 | 76 | 360 | 0.0 | 0.9 | 0.00 | 0.00 | 0.00 | 81 | 1016.1 |
| 20260902114542 | 76 | 360 | 0.0 | 0.9 | 0.00 | 0.00 | 0.00 | 81 | 1016.0 |
| 20260902114421 | 76 | 360 | 0.0 | 0.9 | 0.00 | 0.00 | 0.00 | 81 | 1016.0 |
| 20260902114325 | 76 | 161 | 0.0 | 0.9 | 0.00 | 0.00 | 0.00 | 81 | 1016.0 |
| 20260902114226 | 76 | 161 | 0.0 | 1.7 | 0.00 | 0.00 | 0.00 | 81 | 1015.9 |
| 20260902114126 | 76 | 360 | 0.0 | 1.7 | 0.00 | 0.00 | 0.00 | 81 | 1016.0 |
| 20260902114028 | 76 | 360 | 0.0 | 1.7 | 0.00 | 0.00 | 0.00 | 81 | 1015.9 |
| 20260902113929 | 76 | 360 | 0.0 | 1.7 | 0.00 | 0.00 | 0.00 | 81 | 1016.0 |
| 20260902113829 | 76 | 360 | 0.0 | 1.7 | 0.00 | 0.00 | 0.00 | 81 | 1016.0 |
| 20260902113729 | 76 | 161 | 0.0 | 1.7 | 0.00 | 0.00 | 0.00 | 81 | 1016.1 |
| 20260902113635 | 76 | 161 | 0.0 | 1.7 | 0.00 | 0.00 | 0.00 | 81 | 1016.1 |
| 20260902113535 | 76 | 161 | 0.9 | 1.7 | 0.00 | 0.00 | 0.00 | 81 | 1016.0 |
| 20260902113416 | 76 | 360 | 0.9 | 1.7 | 0.00 | 0.00 | 0.00 | 81 | 1016.0 |
| 20260902113316 | 76 | 360 | 0.0 | 1.7 | 0.00 | 0.00 | 0.00 | 81 | 1016.1 |
| 20260902113217 | 76 | 360 | 0.0 | 1.7 | 0.00 | 0.00 | 0.00 | 81 | 1016.0 |
| 20260902113117 | 76 | 360 | 0.0 | 1.7 | 0.00 | 0.00 | 0.00 | 80 | 1016.1 |
| 20260902113022 | 76 | 360 | 0.0 | 1.7 | 0.00 | 0.00 | 0.00 | 80 | 1016.0 |
| 20260902112922 | 76 | 360 | 0.0 | 1.7 | 0.00 | 0.00 | 0.00 | 80 | 1016.0 |
| 20260902112824 | 76 | 360 | 0.9 | 1.7 | 0.00 | 0.00 | 0.00 | 80 | 1016.0 |
| 20260902112723 | 76 | 360 | 0.9 | 1.7 | 0.00 | 0.00 | 0.00 | 80 | 1016.0 |
| 20260902112624 | 76 | 360 | 0.0 | 1.7 | 0.00 | 0.00 | 0.00 | 80 | 1016.0 |
| 20260902112524 | 76 | 360 | 0.0 | 0.0 | 0.00 | 0.00 | 0.00 | 80 | 1016.0 |
| 20260902112425 | 76 | 161 | 0.0 | 0.0 | 0.00 | 0.00 | 0.00 | 80 | 1016.0 |
| 20260902112329 | 76 | 161 | 0.0 | 0.0 | 0.00 | 0.00 | 0.00 | 80 | 1016.0 |
| 20260902112231 | 76 | 161 | 0.0 | 0.0 | 0.00 | 0.00 | 0.00 | 80 | 1016.0 |
| 20260902112132 | 76 | 161 | 0.0 | 0.0 | 0.00 | 0.00 | 0.00 | 80 | 1016.0 |
| 20260902112032 | 76 | 161 | 0.0 | 0.9 | 0.00 | 0.00 | 0.00 | 80 | 1016.1 |
| 20260902111933 | 76 | 161 | 0.0 | 0.9 | 0.00 | 0.00 | 0.00 | 80 | 1016.1 |
| 20260902111834 | 76 | 161 | 0.0 | 0.9 | 0.00 | 0.00 | 0.00 | 80 | 1016.0 |
| 20260902111719 | 76 | 161 | 0.0 | 0.9 | 0.00 | 0.00 | 0.00 | 80 | 1016.1 |
| 20260902111620 | 76 | 161 | 0.0 | 0.9 | 0.00 | 0.00 | 0.00 | 80 | 1016.0 |
| 20260902111520 | 76 | 161 | 0.0 | 0.9 | 0.00 | 0.00 | 0.00 | 80 | 1016.0 |
| 20260902111420 | 76 | 161 | 0.0 | 0.9 | 0.00 | 0.00 | 0.00 | 80 | 1016.0 |
| 20260902111321 | 76 | 360 | 0.0 | 0.9 | 0.00 | 0.00 | 0.00 | 80 | 1016.0 |
| 20260902111222 | 76 | 360 | 0.0 | 0.9 | 0.00 | 0.00 | 0.00 | 80 | 1016.0 |
| 20260902111143 | 76 | 161 | 0.0 | 0.9 | 0.00 | 0.00 | 0.00 | 80 | 1016.0 |
| 20260902111027 | 76 | 161 | 0.0 | 0.9 | 0.00 | 0.00 | 0.00 | 80 | 1015.9 |
| 20260902110948 | 76 | 161 | 0.0 | 0.9 | 0.00 | 0.00 | 0.00 | 80 | 1016.0 |
| 20260902110827 | 76 | 360 | 0.0 | 0.9 | 0.00 | 0.00 | 0.00 | 80 | 1016.0 |
| 20260902110727 | 76 | 360 | 0.0 | 0.9 | 0.00 | 0.00 | 0.00 | 80 | 1015.9 |
| 20260902110627 | 76 | 360 | 0.0 | 0.9 | 0.00 | 0.00 | 0.00 | 80 | 1015.9 |
| 20260902110527 | 76 | 360 | 0.0 | 0.9 | 0.00 | 0.00 | 0.00 | 80 | 1015.9 |
| 20260902110427 | 76 | 161 | 0.0 | 0.0 | 0.00 | 0.00 | 0.00 | 80 | 1016.0 |
| 20260902110348 | 76 | 161 | 0.0 | 0.0 | 0.00 | 0.00 | 0.00 | 80 | 1015.9 |
| 20260902110231 | 76 | 161 | 0.0 | 0.0 | 0.00 | 0.00 | 0.00 | 79 | 1015.9 |
| 20260902110131 | 76 | 161 | 0.0 | 0.0 | 0.00 | 0.00 | 0.00 | 79 | 1016.0 |
| 20260902110031 | 76 | 161 | 0.0 | 0.0 | 0.00 | 0.00 | 0.00 | 79 | 1016.0 |
| 20260902105930 | 76 | 161 | 0.0 | 0.0 | 0.00 | 0.00 | 0.00 | 79 | 1015.9 |
| 20260902105831 | 76 | 161 | 0.0 | 0.0 | 0.00 | 0.00 | 0.00 | 79 | 1016.0 |
| 20260902105730 | 77 | 161 | 0.0 | 0.0 | 0.00 | 0.00 | 0.00 | 79 | 1015.9 |
| 20260902105651 | 77 | 161 | 0.0 | 0.0 | 0.00 | 0.00 | 0.00 | 79 | 1015.9 |
| 20260902105530 | 77 | 161 | 0.0 | 0.0 | 0.00 | 0.00 | 0.00 | 79 | 1015.9 |
| 20260902105435 | 77 | 161 | 0.0 | 0.0 | 0.00 | 0.00 | 0.00 | 79 | 1015.9 |
| 20260902105316 | 77 | 161 | 0.0 | 0.0 | 0.00 | 0.00 | 0.00 | 79 | 1015.9 |
| 20260902105217 | 77 | 161 | 0.0 | 0.0 | 0.00 | 0.00 | 0.00 | 79 | 1015.9 |
| 20260902105117 | 77 | 161 | 0.0 | 0.9 | 0.00 | 0.00 | 0.00 | 79 | 1015.9 |
| 20260902105018 | 77 | 161 | 0.0 | 1.7 | 0.00 | 0.00 | 0.00 | 79 | 1015.9 |
| 20260902104918 | 77 | 161 | 0.0 | 1.7 | 0.00 | 0.00 | 0.00 | 79 | 1015.9 |
| 20260902104823 | 77 | 161 | 0.0 | 1.7 | 0.00 | 0.00 | 0.00 | 79 | 1016.0 |
| 20260902104723 | 77 | 360 | 0.0 | 1.7 | 0.00 | 0.00 | 0.00 | 79 | 1016.0 |
| 20260902104623 | 77 | 360 | 0.0 | 1.7 | 0.00 | 0.00 | 0.00 | 79 | 1016.0 |
| 20260902104542 | 77 | 161 | 0.0 | 1.7 | 0.00 | 0.00 | 0.00 | 79 | 1016.0 |
| 20260902104423 | 77 | 161 | 0.0 | 1.7 | 0.00 | 0.00 | 0.00 | 79 | 1016.0 |
| 20260902104323 | 77 | 161 | 0.9 | 1.7 | 0.00 | 0.00 | 0.00 | 79 | 1016.0 |
| 20260902104244 | 77 | 161 | 0.9 | 1.7 | 0.00 | 0.00 | 0.00 | 79 | 1016.0 |
| 20260902104121 | 77 | 161 | 0.0 | 1.7 | 0.00 | 0.00 | 0.00 | 79 | 1016.0 |
| 20260902104026 | 77 | 161 | 0.0 | 0.0 | 0.00 | 0.00 | 0.00 | 79 | 1015.9 |
| 20260902103926 | 77 | 161 | 0.0 | 0.0 | 0.00 | 0.00 | 0.00 | 79 | 1015.9 |
| 20260902103827 | 77 | 161 | 0.0 | 0.0 | 0.00 | 0.00 | 0.00 | 79 | 1015.9 |
| 20260902103728 | 77 | 161 | 0.0 | 0.0 | 0.00 | 0.00 | 0.00 | 79 | 1015.9 |
| 20260902103629 | 77 | 161 | 0.0 | 0.0 | 0.00 | 0.00 | 0.00 | 79 | 1015.9 |
| 20260902103531 | 77 | 161 | 0.0 | 0.0 | 0.00 | 0.00 | 0.00 | 79 | 1016.0 |
| 20260902103416 | 77 | 161 | 0.0 | 0.0 | 0.00 | 0.00 | 0.00 | 79 | 1015.9 |
| 20260902103317 | 77 | 161 | 0.0 | 0.0 | 0.00 | 0.00 | 0.00 | 79 | 1015.9 |
| 20260902103217 | 77 | 161 | 0.0 | 0.0 | 0.00 | 0.00 | 0.00 | 79 | 1015.9 |
| 20260902103119 | 77 | 161 | 0.0 | 0.0 | 0.00 | 0.00 | 0.00 | 79 | 1015.9 |
| 20260902103020 | 77 | 161 | 0.0 | 0.0 | 0.00 | 0.00 | 0.00 | 79 | 1015.9 |
| 20260902102920 | 77 | 161 | 0.0 | 0.0 | 0.00 | 0.00 | 0.00 | 79 | 1015.9 |
| 20260902102822 | 77 | 161 | 0.0 | 0.0 | 0.00 | 0.00 | 0.00 | 79 | 1015.9 |
| 20260902102725 | 77 | 161 | 0.0 | 0.0 | 0.00 | 0.00 | 0.00 | 79 | 1016.0 |
| 20260902102626 | 77 | 161 | 0.0 | 0.0 | 0.00 | 0.00 | 0.00 | 79 | 1015.9 |
| 20260902102528 | 77 | 161 | 0.0 | 0.0 | 0.00 | 0.00 | 0.00 | 79 | 1015.9 |
| 20260902102448 | 77 | 360 | 0.0 | 0.0 | 0.00 | 0.00 | 0.00 | 79 | 1015.9 |
| 20260902102327 | 77 | 161 | 0.0 | 0.0 | 0.00 | 0.00 | 0.00 | 79 | 1015.9 |
| 20260902102227 | 77 | 161 | 0.0 | 0.0 | 0.00 | 0.00 | 0.00 | 78 | 1015.9 |
| 20260902102128 | 77 | 161 | 0.0 | 0.0 | 0.00 | 0.00 | 0.00 | 78 | 1016.0 |
| 20260902102032 | 77 | 161 | 0.0 | 0.0 | 0.00 | 0.00 | 0.00 | 78 | 1016.0 |
| 20260902101933 | 77 | 360 | 0.0 | 0.9 | 0.00 | 0.00 | 0.00 | 78 | 1016.0 |
| 20260902101854 | 77 | 360 | 0.0 | 0.9 | 0.00 | 0.00 | 0.00 | 78 | 1016.0 |
| 20260902101753 | 77 | 360 | 0.0 | 0.9 | 0.00 | 0.00 | 0.00 | 78 | 1016.1 |
| 20260902101633 | 77 | 360 | 0.0 | 0.9 | 0.00 | 0.00 | 0.00 | 78 | 1016.0 |
| 20260902101532 | 78 | 161 | 0.0 | 0.9 | 0.00 | 0.00 | 0.00 | 78 | 1016.0 |
| 20260902101433 | 78 | 161 | 0.0 | 0.9 | 0.00 | 0.00 | 0.00 | 78 | 1016.0 |
| 20260902101317 | 78 | 360 | 0.0 | 0.9 | 0.00 | 0.00 | 0.00 | 78 | 1016.0 |
| 20260902101239 | 78 | 360 | 0.0 | 0.9 | 0.00 | 0.00 | 0.00 | 77 | 1016.0 |
| 20260902101118 | 78 | 360 | 0.0 | 0.9 | 0.00 | 0.00 | 0.00 | 77 | 1016.0 |
| 20260902101020 | 78 | 360 | 0.0 | 0.0 | 0.00 | 0.00 | 0.00 | 77 | 1015.9 |
| 20260902100921 | 78 | 161 | 0.0 | 0.0 | 0.00 | 0.00 | 0.00 | 77 | 1016.0 |
| 20260902100821 | 78 | 360 | 0.0 | 0.0 | 0.00 | 0.00 | 0.00 | 77 | 1015.9 |
| 20260902100722 | 78 | 360 | 0.0 | 0.0 | 0.00 | 0.00 | 0.00 | 77 | 1015.9 |
| 20260902100625 | 78 | 161 | 0.0 | 0.0 | 0.00 | 0.00 | 0.00 | 77 | 1015.8 |
| 20260902100526 | 78 | 360 | 0.0 | 0.0 | 0.00 | 0.00 | 0.00 | 77 | 1015.8 |
| 20260902100426 | 78 | 360 | 0.0 | 0.0 | 0.00 | 0.00 | 0.00 | 77 | 1015.8 |
| 20260902100326 | 78 | 360 | 0.0 | 0.0 | 0.00 | 0.00 | 0.00 | 77 | 1015.8 |
| 20260902100247 | 78 | 360 | 0.0 | 0.0 | 0.00 | 0.00 | 0.00 | 77 | 1015.8 |
| 20260902100146 | 78 | 360 | 0.0 | 0.0 | 0.00 | 0.00 | 0.00 | 77 | 1015.8 |
| 20260902100026 | 78 | 360 | 0.0 | 0.0 | 0.00 | 0.00 | 0.00 | 77 | 1015.8 |
| 20260902095930 | 78 | 360 | 0.0 | 0.0 | 0.00 | 0.00 | 0.00 | 77 | 1015.8 |
| 20260902095833 | 78 | 360 | 0.0 | 0.0 | 0.00 | 0.00 | 0.00 | 77 | 1015.8 |
| 20260902095734 | 78 | 360 | 0.0 | 0.0 | 0.00 | 0.00 | 0.00 | 77 | 1015.8 |
| 20260902095635 | 78 | 360 | 0.0 | 1.7 | 0.00 | 0.00 | 0.00 | 77 | 1015.8 |
| 20260902095555 | 78 | 360 | 0.0 | 1.7 | 0.00 | 0.00 | 0.00 | 77 | 1015.9 |
| 20260902095435 | 78 | 161 | 0.0 | 1.7 | 0.00 | 0.00 | 0.00 | 77 | 1015.8 |
| 20260902095334 | 78 | 360 | 0.0 | 1.7 | 0.00 | 0.00 | 0.00 | 77 | 1015.8 |
| 20260902095240 | 78 | 360 | 0.0 | 1.7 | 0.00 | 0.00 | 0.00 | 77 | 1015.8 |
| 20260902095116 | 78 | 360 | 0.0 | 1.7 | 0.00 | 0.00 | 0.00 | 77 | 1015.8 |
| 20260902095017 | 78 | 360 | 0.0 | 1.7 | 0.00 | 0.00 | 0.00 | 77 | 1015.8 |
| 20260902094917 | 78 | 360 | 0.0 | 1.7 | 0.00 | 0.00 | 0.00 | 77 | 1015.8 |
| 20260902094839 | 78 | 360 | 0.0 | 1.7 | 0.00 | 0.00 | 0.00 | 77 | 1015.8 |
| 20260902094717 | 78 | 161 | 0.0 | 1.7 | 0.00 | 0.00 | 0.00 | 76 | 1015.8 |
| 20260902094637 | 78 | 161 | 0.9 | 1.7 | 0.00 | 0.00 | 0.00 | 76 | 1015.8 |
| 20260902094517 | 78 | 161 | 0.9 | 1.7 | 0.00 | 0.00 | 0.00 | 76 | 1015.8 |
| 20260902094420 | 79 | 161 | 0.9 | 1.7 | 0.00 | 0.00 | 0.00 | 76 | 1015.8 |
| 20260902094321 | 79 | 161 | 0.9 | 1.7 | 0.00 | 0.00 | 0.00 | 76 | 1015.8 |
| 20260902094221 | 79 | 161 | 0.9 | 1.7 | 0.00 | 0.00 | 0.00 | 76 | 1015.8 |
| 20260902094122 | 79 | 161 | 1.7 | 1.7 | 0.00 | 0.00 | 0.00 | 76 | 1015.8 |
| 20260902094021 | 79 | 161 | 1.7 | 1.7 | 0.00 | 0.00 | 0.00 | 76 | 1015.8 |
| 20260902093921 | 79 | 161 | 1.7 | 1.7 | 0.00 | 0.00 | 0.00 | 76 | 1015.8 |
| 20260902093826 | 79 | 161 | 1.7 | 1.7 | 0.00 | 0.00 | 0.00 | 76 | 1015.8 |
| 20260902093726 | 79 | 161 | 0.9 | 1.7 | 0.00 | 0.00 | 0.00 | 76 | 1015.9 |
| 20260902093627 | 79 | 161 | 0.9 | 1.7 | 0.00 | 0.00 | 0.00 | 76 | 1015.8 |
| 20260902093527 | 79 | 161 | 0.9 | 1.7 | 0.00 | 0.00 | 0.00 | 76 | 1015.9 |
| 20260902093428 | 79 | 161 | 0.9 | 1.7 | 0.00 | 0.00 | 0.00 | 76 | 1015.8 |
| 20260902093328 | 79 | 161 | 0.0 | 2.6 | 0.00 | 0.00 | 0.00 | 76 | 1015.8 |
| 20260902093249 | 79 | 161 | 0.0 | 2.6 | 0.00 | 0.00 | 0.00 | 75 | 1015.8 |
| 20260902093132 | 79 | 161 | 0.9 | 2.6 | 0.00 | 0.00 | 0.00 | 75 | 1015.7 |
| 20260902093033 | 79 | 161 | 0.9 | 2.6 | 0.00 | 0.00 | 0.00 | 76 | 1015.8 |
| 20260902092932 | 79 | 161 | 0.9 | 2.6 | 0.00 | 0.00 | 0.00 | 76 | 1015.8 |
| 20260902092834 | 79 | 161 | 0.9 | 2.6 | 0.00 | 0.00 | 0.00 | 76 | 1015.7 |
| 20260902092733 | 79 | 161 | 1.7 | 2.6 | 0.00 | 0.00 | 0.00 | 76 | 1015.8 |
| 20260902092634 | 79 | 161 | 1.7 | 2.6 | 0.00 | 0.00 | 0.00 | 76 | 1015.7 |
| 20260902092519 | 79 | 161 | 1.7 | 2.6 | 0.00 | 0.00 | 0.00 | 76 | 1015.8 |
| 20260902092438 | 79 | 153 | 1.7 | 4.3 | 0.00 | 0.00 | 0.00 | 76 | 1015.8 |
| 20260902092318 | 79 | 360 | 1.7 | 4.3 | 0.00 | 0.00 | 0.00 | 76 | 1015.8 |
| 20260902092219 | 79 | 360 | 1.7 | 4.3 | 0.00 | 0.00 | 0.00 | 76 | 1015.8 |
| 20260902092119 | 79 | 360 | 0.9 | 4.3 | 0.00 | 0.00 | 0.00 | 76 | 1015.9 |
| 20260902092020 | 79 | 360 | 0.9 | 4.3 | 0.00 | 0.00 | 0.00 | 76 | 1015.8 |
| 20260902091921 | 79 | 360 | 0.9 | 4.3 | 0.00 | 0.00 | 0.00 | 76 | 1015.8 |
| 20260902091826 | 79 | 360 | 1.7 | 4.3 | 0.00 | 0.00 | 0.00 | 76 | 1015.9 |
| 20260902091727 | 79 | 152 | 1.7 | 4.3 | 0.00 | 0.00 | 0.00 | 75 | 1015.8 |
| 20260902091628 | 79 | 360 | 1.7 | 4.3 | 0.00 | 0.00 | 0.00 | 75 | 1015.9 |
| 20260902091528 | 79 | 360 | 0.9 | 2.6 | 0.00 | 0.00 | 0.00 | 75 | 1015.8 |
| 20260902091448 | 79 | 360 | 0.9 | 2.6 | 0.00 | 0.00 | 0.00 | 75 | 1015.8 |
| 20260902091328 | 79 | 152 | 1.7 | 2.6 | 0.00 | 0.00 | 0.00 | 76 | 1015.8 |
| 20260902091229 | 79 | 152 | 1.7 | 4.3 | 0.00 | 0.00 | 0.00 | 76 | 1015.9 |
| 20260902091150 | 79 | 360 | 1.7 | 4.3 | 0.00 | 0.00 | 0.00 | 77 | 1015.9 |
| 20260902091034 | 79 | 360 | 1.7 | 4.3 | 0.00 | 0.00 | 0.00 | 77 | 1015.9 |
| 20260902090934 | 79 | 360 | 1.7 | 4.3 | 0.00 | 0.00 | 0.00 | 76 | 1015.9 |
| 20260902090834 | 79 | 360 | 1.7 | 4.3 | 0.00 | 0.00 | 0.00 | 76 | 1015.9 |
| 20260902090734 | 79 | 152 | 1.7 | 4.3 | 0.00 | 0.00 | 0.00 | 75 | 1015.9 |
| 20260902090635 | 79 | 360 | 1.7 | 4.3 | 0.00 | 0.00 | 0.00 | 75 | 1015.9 |
| 20260902090536 | 79 | 151 | 1.7 | 4.3 | 0.00 | 0.00 | 0.00 | 75 | 1015.9 |
| 20260902090419 | 79 | 360 | 2.6 | 4.3 | 0.00 | 0.00 | 0.00 | 75 | 1016.0 |
| 20260902090320 | 79 | 152 | 1.7 | 4.3 | 0.00 | 0.00 | 0.00 | 75 | 1015.9 |
| 20260902090221 | 79 | 360 | 1.7 | 2.6 | 0.00 | 0.00 | 0.00 | 75 | 1015.9 |
| 20260902090121 | 79 | 360 | 1.7 | 2.6 | 0.00 | 0.00 | 0.00 | 75 | 1015.9 |
| 20260902090041 | 79 | 360 | 0.9 | 2.6 | 0.00 | 0.00 | 0.00 | 75 | 1015.9 |
| 20260902085941 | 79 | 360 | 0.9 | 2.6 | 0.00 | 0.00 | 0.00 | 75 | 1015.9 |
| 20260902085842 | 79 | 360 | 0.9 | 2.6 | 0.00 | 0.00 | 0.00 | 75 | 1015.9 |
| 20260902085719 | 79 | 360 | 1.7 | 2.6 | 0.00 | 0.00 | 0.00 | 75 | 1015.9 |
| 20260902085624 | 79 | 360 | 1.7 | 2.6 | 0.00 | 0.00 | 0.00 | 75 | 1015.9 |
| 20260902085544 | 79 | 360 | 1.7 | 2.6 | 0.00 | 0.00 | 0.00 | 75 | 1016.0 |
| 20260902085444 | 79 | 184 | 1.7 | 2.6 | 0.00 | 0.00 | 0.00 | 75 | 1015.9 |
| 20260902085324 | 80 | 360 | 1.7 | 2.6 | 0.00 | 0.00 | 0.00 | 75 | 1015.9 |
| 20260902085224 | 80 | 184 | 1.7 | 3.5 | 0.00 | 0.00 | 0.00 | 74 | 1015.9 |
| 20260902085124 | 80 | 360 | 1.7 | 3.5 | 0.00 | 0.00 | 0.00 | 74 | 1015.9 |
| 20260902085027 | 80 | 360 | 1.7 | 3.5 | 0.00 | 0.00 | 0.00 | 74 | 1015.9 |
| 20260902084932 | 80 | 360 | 1.7 | 3.5 | 0.00 | 0.00 | 0.00 | 74 | 1015.8 |
| 20260902084832 | 80 | 184 | 1.7 | 3.5 | 0.00 | 0.00 | 0.00 | 74 | 1015.9 |
| 20260902084733 | 80 | 360 | 0.9 | 3.5 | 0.00 | 0.00 | 0.00 | 74 | 1015.9 |
| 20260902084634 | 80 | 360 | 1.7 | 3.5 | 0.00 | 0.00 | 0.00 | 74 | 1015.9 |
| 20260902084535 | 80 | 184 | 1.7 | 3.5 | 0.00 | 0.00 | 0.00 | 74 | 1015.9 |
| 20260902084435 | 80 | 360 | 1.7 | 3.5 | 0.00 | 0.00 | 0.00 | 74 | 1015.9 |
| 20260902084320 | 80 | 360 | 1.7 | 3.5 | 0.00 | 0.00 | 0.00 | 74 | 1016.0 |
| 20260902084220 | 80 | 360 | 0.9 | 3.5 | 0.00 | 0.00 | 0.00 | 74 | 1015.9 |
| 20260902084121 | 80 | 360 | 0.9 | 7.0 | 0.00 | 0.00 | 0.00 | 74 | 1016.0 |
| 20260902084042 | 80 | 360 | 1.7 | 7.0 | 0.00 | 0.00 | 0.00 | 74 | 1015.9 |
| 20260902083922 | 80 | 360 | 1.7 | 7.0 | 0.00 | 0.00 | 0.00 | 74 | 1016.0 |
| 20260902083821 | 80 | 360 | 1.7 | 7.0 | 0.00 | 0.00 | 0.00 | 74 | 1015.9 |
| 20260902083723 | 80 | 360 | 1.7 | 7.0 | 0.00 | 0.00 | 0.00 | 74 | 1015.9 |
| 20260902083628 | 80 | 360 | 1.7 | 7.0 | 0.00 | 0.00 | 0.00 | 74 | 1015.9 |
| 20260902083549 | 80 | 360 | 0.9 | 7.0 | 0.00 | 0.00 | 0.00 | 74 | 1015.9 |
| 20260902083427 | 80 | 360 | 0.9 | 7.0 | 0.00 | 0.00 | 0.00 | 74 | 1015.9 |
| 20260902083327 | 80 | 360 | 1.7 | 7.0 | 0.00 | 0.00 | 0.00 | 73 | 1015.8 |
| 20260902083226 | 80 | 360 | 1.7 | 7.0 | 0.00 | 0.00 | 0.00 | 73 | 1015.9 |
| 20260902083126 | 80 | 360 | 1.7 | 7.0 | 0.00 | 0.00 | 0.00 | 73 | 1015.9 |
| 20260902083028 | 80 | 360 | 1.7 | 7.0 | 0.00 | 0.00 | 0.00 | 73 | 1015.8 |
| 20260902082928 | 80 | 360 | 2.6 | 7.0 | 0.00 | 0.00 | 0.00 | 73 | 1015.8 |
| 20260902082830 | 80 | 360 | 3.5 | 7.0 | 0.00 | 0.00 | 0.00 | 73 | 1015.8 |
| 20260902082734 | 80 | 360 | 2.6 | 7.0 | 0.00 | 0.00 | 0.00 | 73 | 1015.8 |
| 20260902082653 | 80 | 360 | 2.6 | 5.2 | 0.00 | 0.00 | 0.00 | 73 | 1015.8 |
| 20260902082533 | 80 | 360 | 1.7 | 5.2 | 0.00 | 0.00 | 0.00 | 73 | 1015.7 |
| 20260902082433 | 80 | 360 | 1.7 | 5.2 | 0.00 | 0.00 | 0.00 | 73 | 1015.8 |
| 20260902082334 | 80 | 360 | 1.7 | 5.2 | 0.00 | 0.00 | 0.00 | 73 | 1015.7 |
| 20260902082234 | 80 | 360 | 1.7 | 5.2 | 0.00 | 0.00 | 0.00 | 73 | 1015.8 |
| 20260902082119 | 80 | 360 | 2.6 | 5.2 | 0.00 | 0.00 | 0.00 | 73 | 1015.9 |
| 20260902082039 | 80 | 360 | 2.6 | 5.2 | 0.00 | 0.00 | 0.00 | 73 | 1015.8 |
| 20260902081919 | 80 | 360 | 2.6 | 5.2 | 0.00 | 0.00 | 0.00 | 73 | 1015.8 |
| 20260902081819 | 80 | 360 | 1.7 | 3.5 | 0.00 | 0.00 | 0.00 | 73 | 1015.8 |
| 20260902081719 | 80 | 360 | 0.9 | 3.5 | 0.00 | 0.00 | 0.00 | 73 | 1015.9 |
| 20260902081639 | 80 | 360 | 0.9 | 3.5 | 0.00 | 0.00 | 0.00 | 73 | 1015.9 |
| 20260902081519 | 80 | 360 | 1.7 | 3.5 | 0.00 | 0.00 | 0.00 | 73 | 1015.9 |
| 20260902081419 | 80 | 360 | 1.7 | 3.5 | 0.00 | 0.00 | 0.00 | 73 | 1016.0 |
| 20260902081324 | 80 | 360 | 1.7 | 3.5 | 0.00 | 0.00 | 0.00 | 73 | 1016.0 |
| 20260902081244 | 80 | 360 | 0.9 | 3.5 | 0.00 | 0.00 | 0.00 | 73 | 1015.9 |
| 20260902081124 | 80 | 360 | 0.9 | 3.5 | 0.00 | 0.00 | 0.00 | 73 | 1016.0 |
| 20260902081024 | 80 | 360 | 0.9 | 3.5 | 0.00 | 0.00 | 0.00 | 73 | 1016.0 |
| 20260902080945 | 81 | 360 | 0.9 | 3.5 | 0.00 | 0.00 | 0.00 | 72 | 1016.0 |
| 20260902080824 | 81 | 360 | 0.9 | 3.5 | 0.00 | 0.00 | 0.00 | 72 | 1016.0 |
| 20260902080725 | 81 | 360 | 1.7 | 3.5 | 0.00 | 0.00 | 0.00 | 72 | 1016.0 |
| 20260902080645 | 81 | 360 | 1.7 | 3.5 | 0.00 | 0.00 | 0.00 | 72 | 1016.0 |
| 20260902080529 | 81 | 360 | 1.7 | 3.5 | 0.00 | 0.00 | 0.00 | 72 | 1016.0 |
| 20260902080430 | 81 | 360 | 1.7 | 3.5 | 0.00 | 0.00 | 0.00 | 72 | 1016.1 |
| 20260902080350 | 81 | 360 | 0.9 | 3.5 | 0.00 | 0.00 | 0.00 | 72 | 1016.1 |
| 20260902080229 | 81 | 360 | 0.9 | 2.6 | 0.00 | 0.00 | 0.00 | 72 | 1016.0 |
| 20260902080129 | 81 | 360 | 0.9 | 2.6 | 0.00 | 0.00 | 0.00 | 72 | 1016.0 |
| 20260902080049 | 81 | 360 | 0.9 | 2.6 | 0.00 | 0.00 | 0.00 | 72 | 1016.0 |
| 20260902075929 | 81 | 360 | 0.9 | 1.7 | 0.00 | 0.00 | 0.00 | 73 | 1016.0 |
| 20260902075830 | 81 | 360 | 0.9 | 1.7 | 0.00 | 0.00 | 0.00 | 73 | 1016.1 |
| 20260902075733 | 81 | 360 | 0.9 | 3.5 | 0.00 | 0.00 | 0.00 | 73 | 1016.0 |
| 20260902075634 | 81 | 360 | 0.9 | 3.5 | 0.00 | 0.00 | 0.00 | 72 | 1016.1 |
| 20260902075554 | 81 | 360 | 0.9 | 3.5 | 0.00 | 0.00 | 0.00 | 72 | 1016.0 |
| 20260902075433 | 81 | 175 | 0.9 | 3.5 | 0.00 | 0.00 | 0.00 | 72 | 1016.0 |
| 20260902075333 | 81 | 175 | 0.9 | 3.5 | 0.00 | 0.00 | 0.00 | 72 | 1016.0 |
| 20260902075234 | 81 | 360 | 0.9 | 3.5 | 0.00 | 0.00 | 0.00 | 72 | 1016.0 |
| 20260902075116 | 81 | 175 | 1.7 | 3.5 | 0.00 | 0.00 | 0.00 | 72 | 1016.0 |
| 20260902075040 | 81 | 360 | 1.7 | 3.5 | 0.00 | 0.00 | 0.00 | 72 | 1015.9 |
| 20260902074920 | 81 | 360 | 1.7 | 5.2 | 0.00 | 0.00 | 0.00 | 72 | 1016.0 |
| 20260902074820 | 81 | 360 | 1.7 | 5.2 | 0.00 | 0.00 | 0.00 | 72 | 1016.0 |
| 20260902074721 | 81 | 360 | 1.7 | 5.2 | 0.00 | 0.00 | 0.00 | 72 | 1016.0 |
| 20260902074620 | 81 | 175 | 0.9 | 5.2 | 0.00 | 0.00 | 0.00 | 72 | 1016.0 |
| 20260902074520 | 81 | 175 | 0.9 | 5.2 | 0.00 | 0.00 | 0.00 | 72 | 1016.0 |
| 20260902074422 | 81 | 360 | 0.9 | 5.2 | 0.00 | 0.00 | 0.00 | 72 | 1016.0 |
| 20260902074343 | 81 | 360 | 1.7 | 5.2 | 0.00 | 0.00 | 0.00 | 72 | 1016.0 |
| 20260902074227 | 81 | 360 | 1.7 | 5.2 | 0.00 | 0.00 | 0.00 | 72 | 1016.0 |
| 20260902074148 | 81 | 360 | 2.6 | 5.2 | 0.00 | 0.00 | 0.00 | 72 | 1016.0 |
| 20260902074027 | 81 | 360 | 1.7 | 4.3 | 0.00 | 0.00 | 0.00 | 72 | 1016.0 |
| 20260902073927 | 81 | 360 | 1.7 | 4.3 | 0.00 | 0.00 | 0.00 | 72 | 1015.9 |
| 20260902073827 | 81 | 360 | 1.7 | 4.3 | 0.00 | 0.00 | 0.00 | 72 | 1016.0 |
| 20260902073728 | 81 | 360 | 1.7 | 4.3 | 0.00 | 0.00 | 0.00 | 72 | 1016.0 |
| 20260902073649 | 81 | 360 | 1.7 | 4.3 | 0.00 | 0.00 | 0.00 | 72 | 1016.0 |
| 20260902073528 | 81 | 360 | 1.7 | 4.3 | 0.00 | 0.00 | 0.00 | 72 | 1016.0 |
| 20260902073452 | 81 | 360 | 1.7 | 7.0 | 0.00 | 0.00 | 0.00 | 72 | 1016.0 |
| 20260902073332 | 81 | 360 | 2.6 | 7.0 | 0.00 | 0.00 | 0.00 | 72 | 1016.0 |
| 20260902073234 | 81 | 360 | 2.6 | 7.0 | 0.00 | 0.00 | 0.00 | 72 | 1016.0 |
| 20260902073134 | 81 | 360 | 1.7 | 7.0 | 0.00 | 0.00 | 0.00 | 72 | 1016.0 |
| 20260902073034 | 81 | 360 | 1.7 | 7.0 | 0.00 | 0.00 | 0.00 | 72 | 1015.9 |
| 20260902072933 | 81 | 360 | 1.7 | 7.0 | 0.00 | 0.00 | 0.00 | 72 | 1016.0 |
| 20260902072835 | 81 | 360 | 2.6 | 7.0 | 0.00 | 0.00 | 0.00 | 72 | 1016.0 |
| 20260902072720 | 81 | 360 | 2.6 | 7.0 | 0.00 | 0.00 | 0.00 | 72 | 1016.0 |
| 20260902072620 | 81 | 360 | 2.6 | 7.0 | 0.00 | 0.00 | 0.00 | 72 | 1016.0 |
| 20260902072541 | 81 | 360 | 2.6 | 5.2 | 0.00 | 0.00 | 0.00 | 72 | 1016.0 |
| 20260902072421 | 81 | 360 | 2.6 | 5.2 | 0.00 | 0.00 | 0.00 | 72 | 1016.0 |
| 20260902072321 | 81 | 360 | 2.6 | 5.2 | 0.00 | 0.00 | 0.00 | 72 | 1016.0 |
| 20260902072222 | 81 | 360 | 1.7 | 5.2 | 0.00 | 0.00 | 0.00 | 72 | 1016.1 |
| 20260902072124 | 81 | 360 | 1.7 | 7.8 | 0.00 | 0.00 | 0.00 | 71 | 1016.0 |
| 20260902072023 | 81 | 360 | 1.7 | 7.8 | 0.00 | 0.00 | 0.00 | 72 | 1016.0 |
| 20260902071948 | 81 | 360 | 1.7 | 7.8 | 0.00 | 0.00 | 0.00 | 71 | 1016.0 |
| 20260902071827 | 81 | 360 | 1.7 | 7.8 | 0.00 | 0.00 | 0.00 | 72 | 1015.9 |
| 20260902071728 | 81 | 360 | 2.6 | 7.8 | 0.00 | 0.00 | 0.00 | 71 | 1016.0 |
| 20260902071649 | 81 | 360 | 1.7 | 7.8 | 0.00 | 0.00 | 0.00 | 71 | 1016.0 |
| 20260902071550 | 81 | 360 | 1.7 | 7.8 | 0.00 | 0.00 | 0.00 | 71 | 1016.0 |
| 20260902071449 | 81 | 360 | 2.6 | 5.2 | 0.00 | 0.00 | 0.00 | 71 | 1016.0 |
| 20260902071329 | 81 | 360 | 2.6 | 5.2 | 0.00 | 0.00 | 0.00 | 71 | 1016.0 |
| 20260902071230 | 81 | 360 | 1.7 | 5.2 | 0.00 | 0.00 | 0.00 | 71 | 1016.0 |
| 20260902071150 | 82 | 360 | 1.7 | 5.2 | 0.00 | 0.00 | 0.00 | 71 | 1016.1 |
| 20260902071034 | 81 | 360 | 1.7 | 5.2 | 0.00 | 0.00 | 0.00 | 71 | 1016.0 |
| 20260902070935 | 82 | 360 | 1.7 | 5.2 | 0.00 | 0.00 | 0.00 | 71 | 1016.1 |
| 20260902070816 | 82 | 360 | 1.7 | 5.2 | 0.00 | 0.00 | 0.00 | 71 | 1016.1 |
| 20260902070717 | 82 | 360 | 1.7 | 5.2 | 0.00 | 0.00 | 0.00 | 71 | 1016.1 |
| 20260902070617 | 82 | 360 | 1.7 | 5.2 | 0.00 | 0.00 | 0.00 | 71 | 1016.2 |
| 20260902070518 | 82 | 360 | 1.7 | 5.2 | 0.00 | 0.00 | 0.00 | 71 | 1016.2 |
| 20260902070422 | 82 | 360 | 2.6 | 5.2 | 0.00 | 0.00 | 0.00 | 71 | 1016.2 |
| 20260902070343 | 82 | 360 | 2.6 | 5.2 | 0.00 | 0.00 | 0.00 | 71 | 1016.1 |
| 20260902070216 | 82 | 360 | 1.7 | 8.7 | 0.00 | 0.00 | 0.00 | 71 | 1016.1 |